ECMWFFLT1_sfc_temp_000.txt.gz
Temp
68 67 66 66 66 67 66 66 66 67 67 66 66 67 68 68 67 66 67 66 66 67 68 68 68 68 68 68 68 68 68 67 69 68 67 67 67 66 66 67 66 67 67 67 68 68 71 71 69 70 71 71 68 69 72 72 70 70 70 70 70 69 71
66 66 66 65 66 65 65 65 65 66 66 66 66 67 67 66 66 66 67 67 66 66 67 67 70 69 68 68 68 68 67 66 69 69 68 67 68 66 66 67 67 67 67 67 68 70 71 71 70 69 71 70 68 70 70 72 70 70 70 69 69 70 69
65 65 65 65 65 65 65 65 66 66 66 66 67 67 67 66 66 67 67 66 66 65 66 67 69 68 68 68 67 68 67 66 67 66 65 65 67 68 68 68 68 68 69 69 69 70 71 70 70 70 70 70 70 70 70 71 71 70 69 70 70 69 69
64 65 66 66 65 65 65 65 66 66 67 67 67 67 66 67 68 66 67 66 66 66 65 67 67 68 68 67 67 67 67 67 66 67 67 66 66 67 67 67 68 68 68 68 68 69 71 70 70 69 71 70 70 70 70 71 72 72 71 70 69 70 69
65 65 65 64 65 64 64 63 66 66 67 68 66 67 66 67 68 67 66 67 66 66 65 65 67 67 68 67 67 68 68 66 67 67 67 67 67 66 66 66 67 67 67 68 69 69 69 68 69 69 68 66 66 69 70 71 71 72 72 71 70 71 70
64 64 64 65 65 64 65 67 69 69 68 67 66 66 67 69 68 68 67 66 66 66 65 65 65 66 66 67 67 67 67 66 66 67 66 66 66 65 65 66 66 67 67 67 68 68 68 68 68 68 68 69 67 68 69 70 71 71 71 70 70 70 70
64 64 64 64 64 65 66 67 69 68 68 66 66 68 68 68 67 68 67 67 66 65 65 65 65 65 65 66 66 66 65 65 65 65 65 65 65 65 65 66 67 66 67 67 67 67 67 67 68 68 69 69 70 70 70 70 70 70 70 70 69 69 70
64 65 64 65 66 67 67 66 66 67 66 65 66 67 67 66 66 68 68 68 67 66 66 65 65 65 65 65 65 64 64 64 64 64 64 64 64 64 65 65 65 66 66 66 67 67 67 67 67 67 68 67 68 69 68 68 69 70 69 69 69 69 71
65 65 65 66 67 67 66 65 65 65 65 64 64 64 64 65 66 66 67 67 66 66 65 66 65 65 65 64 64 64 64 63 63 64 64 63 63 64 64 65 66 67 66 65 65 66 66 66 67 67 67 67 66 66 67 68 68 69 69 68 68 69 70
63 63 64 66 65 65 65 64 63 63 63 63 62 63 63 64 64 65 65 66 67 67 66 65 65 65 64 63 63 63 63 63 63 63 63 63 63 63 64 65 65 66 65 65 65 65 67 67 67 67 66 66 67 67 67 67 67 68 68 68 68 68 68
63 64 63 64 63 64 63 63 62 62 62 62 62 62 62 63 64 65 65 65 66 66 67 65 65 65 64 63 62 62 62 62 63 63 62 63 63 63 64 65 66 66 67 66 66 66 66 67 67 66 66 66 67 66 67 67 67 67 68 68 69 69 68
63 63 64 63 62 62 63 63 62 62 62 62 62 63 62 62 63 64 64 64 66 66 63 64 64 64 64 63 62 62 62 62 63 62 63 63 63 63 64 65 66 66 67 67 66 67 67 67 66 67 66 67 67 66 66 66 66 67 66 67 68 68 68
63 63 63 63 63 61 61 61 62 63 63 62 63 62 63 63 63 63 63 63 64 64 63 63 64 63 63 62 62 61 62 62 63 62 62 63 63 63 64 65 66 67 67 68 68 67 66 67 67 67 67 67 67 67 66 66 66 66 67 68 68 68 68
66 61 60 60 60 61 61 61 61 61 62 62 62 63 63 63 63 64 63 63 63 63 64 65 63 62 62 62 62 62 62 62 63 63 63 63 64 63 64 64 65 66 67 68 68 67 67 67 66 66 66 66 67 68 67 66 66 66 67 67 68 67 68
60 61 61 62 61 60 61 61 61 61 61 62 62 62 62 62 62 61 61 61 61 62 62 63 62 62 62 62 62 63 63 63 63 64 64 64 63 63 63 64 64 65 67 67 67 68 68 67 67 66 65 66 66 67 67 67 67 67 67 66 66 66 67
61 61 61 61 61 61 61 61 61 61 61 60 61 61 61 61 61 61 61 62 62 61 61 62 62 61 62 62 62 63 63 63 64 64 63 62 62 62 63 63 64 65 66 67 67 67 67 67 66 66 65 65 66 66 66 67 67 64 59 61 63 63 64
61 61 61 62 61 62 61 61 61 61 61 61 60 61 61 61 60 60 61 61 62 61 62 62 62 61 61 62 63 63 63 63 63 62 62 62 62 62 63 63 64 65 66 66 66 66 66 66 65 65 65 65 65 65 66 66 67 61 60 62 63 63 63
61 61 61 62 62 61 60 61 61 61 61 61 61 60 60 59 60 60 61 61 61 62 62 62 62 62 62 62 62 63 63 63 63 62 62 62 62 62 63 64 65 65 65 65 65 65 66 65 65 65 65 65 65 65 65 66 62 58 59 61 61 62 63
62 62 62 62 62 62 61 62 61 62 61 61 61 61 61 61 60 61 61 60 62 62 62 62 62 61 62 62 62 62 62 63 63 63 62 62 62 62 63 63 64 64 64 64 65 65 64 64 64 64 64 64 65 65 65 66 61 58 59 60 59 60 63
63 63 63 63 62 63 61 62 62 63 63 63 63 63 63 63 62 61 62 64 62 61 61 60 60 60 62 62 61 62 62 62 63 63 63 62 62 62 62 63 63 64 64 64 65 64 64 64 63 63 63 64 65 64 65 66 59 57 57 57 57 59 62
62 62 62 62 61 62 62 63 63 62 62 62 64 64 63 63 63 63 62 62 61 61 61 60 60 60 60 61 61 61 61 61 61 62 63 63 62 62 62 63 64 64 64 63 63 63 63 63 63 64 65 64 65 65 64 66 58 57 56 56 56 58 63
64 63 62 63 64 63 63 63 64 63 63 66 66 65 64 65 64 63 63 62 62 61 61 61 60 60 59 61 61 61 61 61 61 62 63 63 63 63 63 64 64 64 64 64 63 64 64 64 63 64 63 64 65 64 64 65 58 56 56 56 56 60 66
68 66 65 64 65 65 64 65 65 65 66 65 64 64 64 65 64 63 63 62 63 62 62 62 61 61 61 63 61 63 62 62 62 62 63 63 63 63 63 63 64 64 65 63 63 63 64 64 64 64 63 64 65 64 63 64 60 55 54 55 56 61 66
69 67 66 66 64 65 64 64 65 66 67 65 64 64 64 64 64 63 62 63 63 62 62 61 62 62 62 62 62 62 62 62 62 63 63 63 63 63 64 64 63 63 65 62 62 62 64 65 64 64 64 65 64 65 64 64 60 54 53 55 56 59 64
68 68 67 67 66 64 64 65 65 67 66 63 63 64 63 63 64 64 64 64 62 62 62 62 61 61 61 62 62 62 62 62 63 63 63 63 64 64 64 63 63 64 64 62 63 63 63 65 64 64 64 65 65 66 65 64 62 55 53 54 55 61 64
64 66 65 64 65 65 66 66 66 64 63 63 64 63 63 63 63 65 64 63 62 61 62 62 63 63 62 62 62 61 63 63 64 64 63 63 64 64 64 64 64 63 63 64 63 63 62 63 63 63 63 64 64 65 64 64 64 61 52 52 55 57 63
69 68 66 66 67 70 64 64 64 64 64 64 63 63 63 62 62 63 65 64 61 62 63 64 63 62 62 61 60 61 62 63 62 63 63 63 63 64 65 64 63 64 64 64 64 61 61 62 63 63 63 64 64 64 64 66 64 64 53 52 53 56 59
66 66 66 69 71 68 62 62 61 62 62 62 62 63 62 62 63 64 61 60 61 62 64 63 63 63 61 60 61 62 62 61 62 63 64 64 64 63 63 64 64 65 64 64 62 60 60 61 61 62 62 63 64 64 63 65 65 63 59 53 52 52 55
64 64 65 64 64 67 65 61 61 62 63 63 63 63 62 62 62 63 63 61 63 64 63 64 64 63 61 61 61 62 62 61 61 63 64 65 64 62 62 63 63 64 63 62 62 60 59 59 60 60 61 61 62 63 63 63 64 60 62 55 51 50 52
63 64 65 67 68 66 67 62 62 62 62 64 63 62 61 62 63 63 63 62 64 62 63 63 63 62 61 63 61 60 60 61 62 60 60 62 62 61 61 62 62 62 62 61 60 59 59 58 58 58 59 59 60 62 62 63 62 63 60 60 53 50 49
65 65 66 66 65 67 66 63 62 61 62 62 62 62 61 61 62 64 63 62 63 63 63 63 63 63 62 61 59 59 59 59 59 59 60 59 60 60 61 61 60 60 61 60 60 59 58 59 58 58 58 59 60 60 61 62 62 62 62 61 60 54 51
64 65 65 64 63 65 64 62 62 61 62 63 62 62 63 61 61 62 63 61 63 63 62 63 63 63 61 60 60 60 59 59 59 59 59 59 59 61 60 60 60 60 60 59 60 59 58 59 59 58 57 57 58 59 60 61 61 60 62 63 62 60 55
62 63 62 62 63 66 62 61 61 61 62 62 62 62 63 62 61 62 62 63 64 64 62 62 62 63 62 60 59 59 60 60 58 59 58 58 58 59 61 60 59 59 61 60 59 59 59 61 59 58 57 57 59 60 60 60 60 60 61 62 62 62 60
61 60 60 61 63 64 60 61 61 62 61 61 62 61 62 63 63 62 62 64 65 66 63 63 63 62 61 61 61 62 62 59 69 64 56 58 59 59 60 61 60 60 60 59 60 60 60 60 60 58 57 57 59 58 59 60 60 60 60 61 59 61 62
60 60 59 60 61 63 61 62 62 61 61 62 62 60 60 61 62 64 64 63 64 62 63 63 66 63 60 61 60 63 67 61 61 59 58 58 59 58 58 59 61 59 60 62 61 60 61 62 59 60 60 59 58 58 60 59 59 62 55 55 49 51 56
59 59 59 61 62 62 62 63 61 61 61 62 60 59 60 60 62 62 65 65 65 64 64 64 63 61 62 60 61 62 63 61 59 58 59 60 58 59 60 65 56 56 60 62 62 56 49 48 57 59 58 60 58 59 61 63 61 49 43 42 43 43 41
59 59 59 60 60 59 60 60 62 61 61 62 61 60 61 62 62 61 61 61 62 63 63 61 61 61 60 61 62 61 61 60 60 59 58 57 57 58 59 60 61 54 53 55 57 50 45 43 41 42 45 53 58 57 48 46 43 42 41 41 41 40 40
59 60 60 60 60 60 59 60 60 61 62 62 61 60 60 61 61 60 62 62 62 60 59 59 61 59 59 60 59 63 64 58 60 61 59 59 57 58 57 57 58 61 56 52 51 50 45 43 44 42 41 42 44 49 55 49 43 40 41 40 41 41 40

ECMWFFLT1_sfc_temp_003.txt.gz
Temp
65 65 64 65 65 66 66 65 63 63 63 63 63 64 65 65 65 64 64 63 64 64 64 63 65 66 67 67 67 67 67 67 67 67 66 66 66 66 65 65 65 65 65 65 66 66 68 69 68 69 69 70 69 69 69 69 69 70 69 69 69 69 69
65 65 65 65 65 65 64 64 62 63 63 63 63 64 64 64 64 64 65 64 64 65 64 63 65 65 65 66 66 66 66 66 67 68 67 66 66 66 66 65 65 65 65 66 66 67 68 68 69 69 69 69 69 69 69 69 69 69 68 68 67 67 68
64 64 65 65 65 64 64 63 62 63 63 63 64 63 63 64 63 64 64 63 65 65 62 63 64 63 64 64 64 65 64 65 65 66 65 65 65 66 66 66 66 65 66 67 67 67 69 69 69 69 69 69 69 69 69 69 69 69 69 68 68 68 68
64 64 65 65 64 63 63 63 63 64 64 64 64 63 63 65 64 63 63 63 64 64 64 63 62 63 64 64 64 64 64 63 64 65 65 65 65 65 65 65 65 65 65 66 67 68 69 68 68 68 70 69 69 69 69 69 69 69 69 69 68 69 68
63 64 63 63 63 62 62 61 63 64 65 66 63 64 64 64 64 64 63 63 62 65 64 63 63 63 64 63 63 64 65 63 64 64 65 65 65 65 64 64 65 65 65 66 66 67 67 66 67 67 67 67 67 68 68 68 68 68 69 69 68 69 68
63 63 62 63 63 62 63 63 64 66 66 65 63 64 65 65 65 64 63 65 63 64 62 62 62 62 62 62 62 63 62 62 63 64 64 64 64 64 64 64 64 65 65 65 66 66 66 66 66 67 66 67 67 67 67 67 67 67 68 68 68 68 68
63 63 62 63 63 62 63 64 65 66 64 64 63 65 65 65 65 65 64 63 64 63 64 63 62 62 63 63 62 62 61 62 62 63 63 63 63 64 63 64 65 64 65 65 65 66 65 65 65 66 67 67 68 68 68 68 68 69 69 68 68 68 68
64 63 62 63 63 64 64 64 64 63 63 63 63 65 65 65 64 65 64 64 63 64 62 63 62 62 63 63 63 61 61 62 62 62 62 62 62 63 63 63 63 64 65 64 65 65 65 65 65 66 67 67 67 67 66 67 68 69 68 68 68 68 69
63 63 64 64 64 64 64 63 63 62 63 62 63 63 63 63 63 63 63 64 63 63 63 63 63 62 63 62 62 61 61 61 62 62 62 61 61 62 62 63 63 64 64 64 65 65 65 65 65 66 66 66 66 66 66 66 66 67 67 67 67 67 68
61 61 62 63 63 63 61 61 60 60 61 61 61 61 62 62 61 62 61 63 62 63 63 62 62 63 62 62 61 61 61 61 61 61 62 61 62 62 62 63 63 64 64 65 65 65 65 66 66 66 66 65 66 66 66 66 66 66 67 67 67 67 67
61 62 62 62 61 61 60 60 60 61 61 60 61 61 60 61 62 61 62 61 62 62 63 62 61 62 62 61 61 61 60 61 61 61 62 62 62 62 63 63 63 64 65 65 65 66 66 66 67 66 66 66 66 66 66 66 66 66 66 67 67 67 67
62 61 62 62 60 59 60 61 60 59 59 59 60 61 60 61 61 61 61 61 61 62 61 61 62 62 62 61 61 61 61 61 61 61 62 63 63 63 63 63 63 63 64 65 65 66 66 66 66 66 66 66 66 66 66 66 66 66 66 66 67 67 67
62 62 62 62 61 60 59 58 60 60 60 61 61 60 61 61 61 61 60 61 60 60 60 61 61 61 60 61 60 60 61 61 61 61 62 62 62 63 63 63 63 64 64 65 66 66 66 67 67 67 67 67 66 66 66 66 66 66 66 65 66 66 66
65 61 60 59 58 59 60 60 60 60 61 60 61 61 61 61 61 61 60 61 60 60 60 63 62 61 60 60 60 60 61 61 61 61 62 62 63 63 62 63 63 63 64 65 65 65 66 66 67 67 67 66 66 66 66 65 65 65 66 66 65 65 66
61 60 60 59 59 59 60 60 60 60 60 61 61 61 61 61 60 60 60 60 60 59 60 60 60 61 60 60 60 61 61 61 62 62 62 63 62 62 62 62 62 63 63 64 64 66 66 66 67 66 66 66 66 66 65 65 65 65 64 62 63 64 64
60 60 60 60 59 59 60 61 60 60 60 60 61 61 61 60 60 60 60 60 59 59 60 59 60 60 60 60 60 61 61 61 62 62 62 62 62 62 61 61 62 63 63 64 64 65 66 66 66 66 66 65 65 65 65 65 66 63 58 60 62 62 63
60 60 59 60 60 60 60 60 60 59 60 60 60 61 61 60 60 60 59 59 59 59 60 59 59 59 59 60 61 61 61 61 62 61 62 62 61 61 62 62 62 62 63 63 64 64 65 65 65 66 65 65 64 64 65 65 65 60 60 61 62 63 62
59 59 59 60 60 60 59 59 58 59 60 60 61 60 60 59 59 59 59 59 59 60 60 58 59 60 60 61 61 61 61 61 61 61 62 61 62 62 62 62 62 62 62 63 63 64 65 64 65 65 65 65 64 64 65 65 62 60 60 61 61 62 61
60 60 60 60 60 60 60 60 60 60 61 61 61 61 60 60 59 59 60 59 61 59 59 60 60 59 60 60 60 60 60 60 60 61 61 61 62 62 62 61 62 62 62 63 64 64 64 64 64 64 64 64 64 64 65 65 62 60 58 59 60 61 62
61 62 61 61 61 62 61 60 61 62 62 62 62 62 62 61 61 61 61 62 60 59 59 59 60 59 60 60 60 60 60 60 59 60 61 61 61 61 61 61 62 62 62 63 63 63 63 63 63 63 64 64 64 63 64 64 61 58 57 57 57 60 62
61 61 61 60 60 60 61 61 61 61 61 61 62 62 61 61 62 62 60 60 60 60 59 59 59 59 59 59 60 60 60 59 59 59 60 61 61 61 62 62 62 62 62 62 62 62 62 62 62 63 64 64 64 64 64 65 60 57 56 55 56 58 62
63 62 61 62 62 61 61 61 62 63 63 64 63 63 62 63 63 61 62 60 60 60 59 59 58 60 59 59 60 60 60 59 58 59 60 61 61 61 62 62 62 62 62 62 62 62 62 63 63 63 63 64 64 63 63 64 60 56 55 55 56 58 63
66 64 65 64 64 63 63 64 64 64 64 63 63 63 63 63 62 62 62 60 61 60 60 59 59 60 60 61 61 61 61 59 58 59 60 61 61 61 61 62 62 62 61 61 61 61 62 62 62 63 63 63 64 63 63 63 61 56 53 54 56 58 63
65 66 64 62 61 62 63 64 64 64 64 63 63 63 63 62 61 61 61 61 61 59 60 59 60 61 61 61 61 61 60 59 59 59 60 60 60 61 62 62 62 61 61 60 60 60 62 62 62 62 62 63 63 64 63 63 61 55 52 53 55 56 62
64 64 62 63 64 63 63 64 64 64 63 61 62 63 62 61 61 61 61 62 61 59 59 59 60 61 61 62 62 60 60 60 59 60 60 60 60 61 62 62 62 63 61 60 60 61 61 63 62 62 61 62 63 65 64 64 62 57 53 52 53 58 61
62 62 62 63 64 65 66 65 63 63 62 62 62 63 62 61 60 62 63 62 60 59 60 61 62 63 62 61 61 60 60 60 60 60 60 60 61 62 62 63 62 61 61 60 59 60 60 61 61 60 61 62 62 63 63 64 64 62 52 51 52 54 60
64 65 65 65 65 68 62 63 63 64 64 64 64 62 61 61 60 61 63 63 60 61 62 63 62 61 61 61 60 60 60 59 59 59 60 60 61 62 63 62 60 60 60 60 60 58 59 60 60 61 61 62 62 63 63 64 64 63 54 51 51 53 55
64 64 64 66 68 67 62 62 61 62 62 62 62 61 61 61 61 63 61 60 61 62 64 62 61 61 61 61 60 60 59 60 60 60 62 61 61 60 60 61 60 60 60 59 58 58 57 59 59 59 59 60 61 62 62 63 65 61 59 54 50 51 52
64 65 65 63 63 66 65 62 62 62 64 64 61 61 60 60 61 61 61 60 62 63 61 61 61 61 61 60 60 60 60 59 59 60 61 61 60 58 59 59 59 60 60 59 59 59 58 58 58 58 57 58 60 61 62 62 63 61 61 56 51 49 51
64 64 63 65 67 65 66 63 62 63 63 63 61 60 60 60 61 61 60 60 63 61 60 60 60 60 60 62 61 59 58 59 59 59 58 58 58 58 58 59 58 59 60 58 58 57 58 57 58 57 57 57 59 60 61 61 61 61 60 60 55 51 49
64 64 64 64 65 66 65 63 62 62 61 60 59 58 58 59 60 62 61 62 61 60 61 61 60 60 61 61 60 58 57 58 57 57 57 57 58 58 60 59 57 58 59 58 58 58 57 57 58 57 57 57 58 58 60 60 60 61 61 61 60 55 51
61 61 62 62 61 64 64 61 60 59 60 61 59 59 59 58 59 60 61 61 61 60 60 60 60 60 61 61 58 57 57 58 57 56 56 58 58 57 57 57 58 57 58 57 57 57 58 58 58 58 58 57 56 58 59 60 60 60 61 62 61 59 54
61 61 62 62 62 65 62 59 59 59 60 60 61 60 60 59 59 61 62 61 61 62 60 59 60 61 61 60 58 57 57 57 57 57 56 56 57 57 58 58 56 56 58 57 56 57 57 59 59 59 58 57 57 57 58 59 60 60 60 59 58 61 61
61 60 60 61 61 62 58 59 59 60 60 61 61 59 60 61 61 61 60 62 63 62 60 60 61 61 60 59 58 58 58 57 66 63 56 57 56 57 57 58 58 57 57 58 57 55 57 57 57 57 58 57 57 57 57 58 59 59 55 57 55 56 57
60 61 61 59 59 62 60 59 59 59 60 61 61 59 58 59 60 61 60 61 62 59 60 61 63 62 59 58 57 59 63 59 59 58 57 57 56 56 56 56 58 57 57 56 57 56 57 57 56 58 57 57 56 55 57 58 58 56 46 48 45 46 50
57 58 57 58 59 59 59 59 58 58 59 60 59 58 58 58 59 59 62 61 61 60 60 61 61 60 60 57 57 58 60 60 58 58 59 57 56 57 58 63 55 55 58 58 58 50 46 47 53 52 50 52 55 57 57 58 57 46 40 40 40 40 40
57 57 57 57 57 56 57 57 59 59 58 59 59 58 59 59 59 59 59 59 59 59 60 60 61 60 59 59 58 59 60 60 59 59 56 56 55 55 55 57 57 50 49 54 56 47 43 43 42 43 45 48 52 54 50 47 43 40 39 40 40 39 39
55 55 56 56 56 56 57 57 57 58 59 58 58 58 57 58 59 59 59 58 59 58 59 60 61 60 59 59 58 60 62 59 59 60 58 56 55 55 54 55 54 59 53 50 50 46 42 41 41 41 42 41 42 45 51 46 41 39 39 40 40 40 39

ECMWFFLT1_sfc_temp_006.txt.gz
Temp
66 65 65 65 64 65 65 65 64 63 63 64 64 64 65 65 65 64 64 64 65 66 66 63 65 65 65 65 66 66 66 66 67 67 67 66 67 66 66 66 66 66 66 66 67 67 68 69 69 69 70 70 70 70 70 71 71 71 71 70 70 70 70
66 66 65 65 65 64 64 64 63 62 63 64 64 64 64 64 64 64 65 64 64 66 66 64 67 64 64 65 65 66 65 66 67 68 67 66 67 66 66 66 66 66 66 66 67 67 68 69 69 69 70 70 70 71 70 70 70 70 70 70 69 69 70
65 65 65 64 64 65 65 63 62 63 64 64 64 64 64 65 65 65 65 65 65 65 64 63 65 64 64 64 64 65 65 65 66 66 65 65 65 66 66 66 67 66 67 67 67 67 68 69 69 69 70 69 69 70 70 70 70 70 70 70 70 69 69
65 65 65 65 65 65 65 64 64 63 64 65 65 65 64 65 65 64 65 65 64 65 65 65 63 64 64 64 65 64 65 65 65 65 65 65 65 65 65 65 65 66 65 66 67 67 68 69 68 68 69 68 68 69 69 69 70 70 70 69 69 69 69
65 64 64 63 64 64 64 63 63 63 64 65 64 65 64 65 65 64 63 64 63 64 64 64 64 64 64 63 64 65 65 64 64 64 65 65 65 65 64 64 65 65 65 66 66 67 67 67 67 67 67 67 68 68 68 69 69 69 69 69 68 69 69
64 63 63 64 64 64 64 64 64 65 65 65 64 64 65 65 65 66 64 65 66 65 64 63 63 63 64 63 63 64 64 64 64 64 64 64 64 64 64 65 65 65 65 65 67 67 67 66 66 67 67 67 67 68 68 68 69 69 69 69 68 68 68
64 63 63 64 64 65 64 64 64 64 65 65 64 65 66 65 66 66 65 64 64 64 64 64 64 63 63 64 63 63 63 63 63 63 63 64 64 64 64 64 65 65 65 66 65 66 66 66 67 67 67 67 68 68 68 68 68 68 68 68 68 68 68
65 63 63 64 65 66 65 64 62 63 64 64 63 64 66 65 65 65 65 65 65 64 64 64 64 64 63 64 64 63 63 63 63 63 63 63 63 63 63 64 64 65 65 65 65 66 66 66 67 67 67 67 67 67 68 68 68 68 68 67 67 67 68
64 64 64 65 65 65 64 63 62 63 64 64 64 65 65 65 64 65 65 65 64 64 65 65 65 63 63 63 63 63 63 62 62 63 63 62 63 63 64 64 64 65 65 65 65 66 66 66 67 66 67 66 67 67 67 67 67 68 67 67 66 66 67
62 62 63 64 64 63 62 61 61 62 63 63 63 63 63 64 64 64 64 65 65 64 65 65 64 64 63 63 63 63 62 62 62 62 63 63 63 63 64 65 64 65 64 65 65 65 67 67 67 67 67 67 67 67 67 67 67 67 67 67 66 66 66
61 63 62 62 62 61 60 60 61 62 63 63 63 63 63 63 63 63 64 64 64 64 65 64 64 64 63 63 62 63 62 62 62 62 63 63 64 65 65 65 65 65 65 65 65 66 66 67 67 67 67 67 67 67 67 67 67 67 66 66 66 66 66
61 62 62 62 61 59 60 61 61 61 62 63 63 63 63 63 63 63 63 63 64 64 63 63 64 64 63 63 62 62 62 62 62 62 63 64 65 65 65 65 64 65 65 65 65 66 66 66 67 67 67 68 68 67 67 67 67 66 66 66 65 65 65
62 62 62 62 61 60 60 59 61 62 62 63 63 62 63 63 63 63 63 63 63 62 63 63 62 62 62 63 61 61 62 62 63 62 63 63 64 64 65 65 65 65 64 65 65 65 65 66 66 67 67 67 67 67 67 66 66 66 66 65 64 64 64
64 61 61 60 60 59 60 61 61 61 62 62 62 62 62 62 63 63 63 63 63 62 62 63 62 62 62 61 61 61 62 62 62 62 62 63 64 64 64 64 64 64 64 65 64 65 65 66 66 66 67 67 67 67 67 66 66 66 65 65 63 63 63
61 61 61 60 60 59 60 61 62 62 62 62 62 62 62 62 62 61 60 61 62 62 62 62 61 61 61 61 61 62 62 62 62 63 63 64 63 63 64 64 64 63 64 64 65 65 66 66 66 66 66 67 67 67 67 65 65 65 65 63 63 63 62
61 61 61 61 60 60 60 62 62 63 63 62 61 61 62 61 62 62 62 62 62 61 62 61 61 61 61 61 61 62 62 62 62 63 63 63 63 64 64 63 63 64 64 64 65 65 65 65 66 66 66 66 66 66 66 65 66 64 59 60 63 62 62
61 62 62 62 61 60 61 61 62 62 62 62 61 61 62 62 62 62 61 62 62 61 62 61 61 61 61 62 62 62 62 62 62 62 62 63 63 63 63 64 64 64 63 64 64 64 65 66 65 66 65 65 65 65 65 65 66 61 60 62 63 63 61
62 62 62 62 61 61 60 61 61 61 62 61 62 61 62 62 62 61 61 62 62 63 62 60 60 61 61 62 62 62 62 62 62 62 62 63 63 63 64 64 63 63 63 63 63 64 65 64 65 65 65 65 65 65 65 65 62 60 59 61 61 62 62
62 63 63 62 61 62 61 62 62 62 62 62 62 62 62 63 62 62 62 62 63 62 61 61 61 61 61 62 62 62 62 62 62 62 62 63 63 63 63 63 63 63 64 64 65 64 64 64 64 64 64 65 64 65 65 65 62 60 58 60 60 60 62
64 64 63 62 62 63 63 63 63 63 63 63 63 64 65 64 63 64 64 64 62 61 61 61 61 61 62 62 62 62 62 61 61 61 62 62 62 62 62 62 63 63 64 64 64 63 63 63 63 64 64 64 65 65 65 65 61 59 57 56 57 59 61
63 62 61 62 61 62 63 63 63 62 61 62 64 64 63 63 63 64 62 61 61 61 61 60 61 61 61 61 62 62 62 62 61 61 61 62 62 62 62 62 63 63 64 63 63 63 63 63 63 64 65 65 65 64 64 65 60 57 56 55 55 56 61
63 62 62 63 63 63 62 62 62 62 63 65 65 64 64 64 64 63 63 62 61 62 61 61 61 61 61 61 62 62 63 62 61 61 61 61 61 61 62 62 63 63 64 64 64 63 63 63 63 64 64 64 64 64 63 65 59 57 55 54 54 56 62
66 64 65 65 65 65 64 64 64 64 65 64 64 64 63 65 64 63 63 63 62 61 61 60 60 61 62 63 63 64 64 63 61 61 61 61 61 62 62 62 63 64 64 63 63 62 62 63 63 64 64 64 65 64 64 64 61 56 54 53 53 56 62
65 65 65 65 63 63 62 63 63 64 65 64 63 64 65 65 64 63 62 63 63 62 62 60 61 62 62 63 63 64 64 62 62 62 62 62 62 62 62 63 63 63 64 63 62 62 63 63 62 64 64 64 64 65 64 64 61 56 54 52 52 53 60
65 65 64 64 64 64 63 63 63 64 65 63 63 64 64 64 63 62 62 63 63 62 61 62 62 62 62 63 64 64 63 63 62 62 62 62 62 62 62 63 63 64 63 62 62 62 62 63 62 63 64 64 64 64 64 64 62 57 56 53 51 56 60
62 62 62 63 63 65 65 65 64 64 63 63 64 65 63 63 62 63 63 64 63 62 62 63 63 64 63 64 64 63 63 63 63 63 63 62 62 62 62 63 64 63 62 62 62 62 62 62 61 62 62 63 64 64 64 64 64 63 56 53 51 52 58
64 64 64 64 65 67 64 64 64 65 65 65 65 64 63 62 62 62 64 64 62 62 63 64 64 63 63 63 62 62 63 62 62 62 62 62 62 63 64 63 62 62 62 62 62 61 61 62 62 62 62 62 62 62 64 65 64 64 57 54 52 51 54
64 64 65 67 68 68 64 64 63 63 65 64 64 63 62 62 62 63 63 62 62 64 66 64 63 63 62 62 62 63 63 63 62 61 62 63 63 62 62 62 61 62 62 61 61 61 61 61 61 61 60 61 61 62 63 64 65 64 60 57 53 51 50
63 64 65 64 64 67 67 63 63 63 65 65 64 63 62 62 62 63 63 62 63 65 64 63 62 62 62 62 62 63 63 63 63 63 63 63 63 61 61 61 61 62 61 61 60 60 60 61 61 61 61 61 62 62 62 63 63 60 62 57 54 51 51
63 64 65 67 69 67 68 64 64 64 63 64 63 61 61 61 63 63 63 63 65 64 63 63 62 61 61 62 63 62 62 63 63 62 62 62 61 61 61 61 61 61 61 60 60 59 60 60 60 60 61 61 61 61 61 62 62 61 60 60 56 54 51
63 64 65 66 67 67 67 65 64 63 62 62 61 60 61 61 63 64 63 65 65 63 63 62 62 61 62 62 62 62 62 61 61 60 60 60 61 62 63 62 61 61 61 60 60 59 59 59 60 60 60 60 60 60 61 61 61 63 62 61 58 55 53
61 61 63 63 63 64 66 63 63 62 62 62 60 60 61 60 61 63 64 65 65 63 62 62 62 62 62 62 62 62 61 61 61 60 60 61 61 62 61 61 61 61 60 60 60 60 59 59 61 61 61 60 60 60 61 60 61 62 61 60 58 57 55
61 61 62 63 64 65 63 61 61 61 62 63 62 60 61 60 60 63 64 63 63 62 62 62 62 62 62 62 62 61 60 60 62 62 62 61 60 60 61 61 60 59 60 60 60 60 60 60 60 60 61 60 60 60 60 61 61 60 57 57 56 56 57
59 59 59 59 61 64 60 60 61 62 61 62 62 60 61 61 61 62 62 63 64 64 63 62 63 62 62 62 61 61 60 61 67 65 62 63 62 62 61 60 60 60 60 61 60 59 59 59 58 58 57 57 58 58 58 60 61 59 53 54 53 53 54
57 58 57 60 59 62 59 60 60 60 61 62 62 60 60 60 60 62 61 62 63 61 61 62 64 64 62 61 59 60 64 62 64 65 63 62 61 59 59 60 61 61 60 59 58 58 58 56 56 56 54 54 55 55 57 58 58 55 47 48 46 47 50
56 57 57 57 58 59 60 61 60 60 60 61 60 59 59 59 60 60 62 62 62 61 61 63 63 62 62 61 60 61 62 63 62 61 61 62 61 60 61 62 54 56 61 61 53 47 44 45 51 49 50 53 55 54 53 54 51 44 40 40 39 40 40
57 56 57 58 58 57 58 58 61 60 60 60 60 60 60 60 60 60 61 60 60 60 61 61 62 63 62 62 62 62 63 62 62 61 59 59 59 59 60 61 61 49 46 52 51 46 40 40 41 43 46 49 50 52 48 46 43 40 39 39 40 39 39
55 57 58 57 58 57 58 58 59 59 60 58 59 59 58 59 59 59 60 61 61 60 61 61 61 61 62 62 61 62 65 62 62 62 60 58 58 58 58 59 58 61 48 44 45 43 41 42 42 42 42 43 44 46 51 47 43 40 40 40 40 40 39

ECMWFFLT1_sfc_temp_009.txt.gz
Temp
79 78 77 77 77 77 77 77 78 78 77 77 77 78 78 78 77 77 77 77 78 77 77 77 77 77 77 77 76 76 75 74 74 74 74 73 73 73 72 72 72 72 73 73 73 73 74 75 75 76 76 76 76 76 76 76 76 76 76 76 75 74 74
77 77 77 77 77 77 77 77 77 78 78 78 78 77 78 77 77 77 78 78 78 78 77 77 77 77 77 76 76 76 75 74 74 74 74 74 74 73 72 72 71 72 72 73 73 74 74 75 75 75 76 76 76 76 76 76 76 76 76 75 74 74 74
77 77 77 77 77 77 76 77 77 78 78 78 78 78 77 77 77 78 77 77 76 76 76 76 77 77 76 76 75 75 75 74 73 74 73 73 73 73 73 72 72 73 73 74 74 74 75 74 75 75 75 75 76 76 76 76 76 75 75 75 75 74 74
76 77 77 77 76 77 77 77 77 78 79 80 79 79 77 77 77 77 78 78 77 76 76 77 76 76 76 75 75 75 74 74 73 73 73 73 73 73 72 72 72 73 73 73 74 74 74 74 74 74 74 75 75 75 75 75 76 75 75 75 74 74 74
77 78 77 76 76 76 76 77 78 77 79 80 79 78 78 78 77 77 76 76 77 77 77 77 77 76 75 74 75 74 74 73 73 73 74 74 73 73 72 73 73 74 74 74 74 73 73 73 74 74 75 74 75 75 75 76 76 75 75 75 73 74 74
77 76 76 76 76 76 77 78 80 81 80 80 77 77 77 79 79 80 78 76 76 76 76 75 76 75 75 75 74 74 74 74 74 73 73 73 73 72 73 73 73 74 74 74 74 74 74 73 74 75 75 76 76 75 76 76 76 76 75 74 73 73 73
77 76 75 76 76 77 78 78 80 80 80 80 78 78 80 81 80 81 79 77 78 76 76 77 77 76 76 75 74 73 73 74 73 73 73 73 73 72 73 73 73 73 74 73 73 74 74 73 74 74 75 75 74 74 74 74 74 75 74 73 73 73 72
77 76 75 76 77 79 80 79 78 79 78 77 78 79 80 80 80 80 79 81 80 80 79 79 77 76 76 75 75 74 74 74 74 74 73 72 73 72 73 73 73 74 73 73 73 73 74 73 74 74 74 74 74 74 74 74 74 75 74 73 72 72 73
78 77 76 77 78 80 80 78 77 76 75 75 76 76 77 77 78 79 80 80 80 79 79 81 80 77 75 75 74 74 74 74 74 74 73 73 74 75 75 76 75 74 73 73 74 74 73 73 74 73 73 73 73 73 74 73 73 74 73 73 72 71 71
75 74 74 77 78 79 78 77 75 73 73 74 74 75 75 76 76 77 79 80 81 79 79 79 79 79 76 74 74 75 74 74 74 73 74 75 75 75 76 77 76 75 73 73 73 73 74 74 73 73 73 73 73 73 73 73 73 73 73 72 72 71 71
74 73 73 74 75 75 74 74 72 72 73 74 74 75 75 75 75 76 77 78 79 79 80 79 78 77 76 75 75 75 74 74 74 74 74 75 76 76 78 78 78 77 74 74 74 74 74 74 74 73 73 73 73 72 71 72 73 73 72 72 72 71 71
72 72 72 73 73 73 72 72 73 73 73 74 74 75 74 74 75 76 76 77 79 79 78 78 79 78 76 77 75 74 74 74 74 74 74 75 75 75 75 75 74 75 76 75 75 75 75 74 74 73 73 73 73 72 71 72 72 72 71 70 70 70 71
72 72 72 73 73 73 72 71 72 73 73 74 75 75 75 75 75 76 75 75 77 77 77 77 76 74 75 76 75 73 74 74 74 74 75 74 74 74 75 76 76 77 76 76 75 75 75 75 74 74 73 73 73 73 72 72 72 71 70 68 69 69 69
71 72 72 73 72 71 71 72 72 72 72 73 74 75 74 75 75 75 75 75 77 77 77 77 74 74 74 74 73 73 74 74 74 74 73 73 73 73 74 74 74 74 74 74 74 76 75 76 74 75 74 74 73 73 73 72 72 71 69 68 68 68 67
70 71 72 72 71 71 72 71 72 72 72 73 74 74 74 74 74 74 74 75 75 77 76 75 74 73 73 73 72 73 74 74 74 73 73 72 72 73 73 74 74 74 74 73 74 74 76 75 75 73 73 74 73 73 73 72 72 71 68 67 67 67 67
71 71 72 72 72 72 72 73 73 73 73 73 73 73 73 73 73 74 74 74 75 74 76 74 72 72 73 73 73 74 74 73 73 72 72 72 73 73 74 74 74 74 73 73 74 74 74 73 73 74 73 73 73 73 73 72 72 67 60 61 66 67 68
71 72 72 73 73 73 72 73 73 74 73 74 74 74 73 73 74 74 76 76 77 75 76 74 73 72 73 72 74 74 73 72 73 73 72 73 73 74 74 73 73 73 73 73 73 73 73 73 73 74 74 73 73 73 73 72 72 63 60 62 62 66 68
71 72 72 73 73 73 72 72 73 73 74 75 74 74 73 73 74 74 74 75 75 76 76 73 73 73 73 73 73 73 73 73 73 72 73 73 73 74 74 73 72 72 72 73 73 73 73 73 73 73 73 73 73 73 73 73 67 61 60 61 61 62 65
72 73 73 73 73 72 73 74 74 74 75 76 75 74 74 74 74 73 74 74 74 74 74 74 74 73 72 73 73 73 73 73 72 73 73 73 74 73 73 72 72 72 73 73 73 73 72 73 73 73 73 73 72 72 73 74 66 61 59 60 59 60 62
73 74 74 75 74 74 74 74 75 76 76 76 76 77 76 75 75 75 76 77 75 73 73 72 73 72 73 73 73 73 73 72 72 72 73 73 73 72 72 72 72 72 73 73 73 73 73 73 73 73 73 73 72 72 73 73 66 60 58 57 56 58 61
73 73 74 74 74 74 74 74 74 74 74 75 76 76 76 75 75 75 75 74 73 73 72 72 72 72 72 72 73 73 73 73 72 72 73 73 72 72 72 72 72 73 74 74 73 73 72 72 72 72 73 74 74 73 73 74 63 59 57 55 54 54 60
74 75 74 75 74 73 74 74 74 74 75 76 75 75 76 76 77 76 75 75 74 73 72 72 71 72 72 72 73 74 74 73 73 73 73 73 72 72 72 73 73 73 73 72 73 74 73 73 73 73 73 74 74 73 73 75 63 58 57 54 54 54 66
78 77 77 76 76 75 76 76 75 76 76 75 74 74 75 77 77 75 75 75 74 72 72 72 71 72 72 73 74 74 75 74 73 73 73 73 72 73 73 73 73 73 73 72 73 73 73 74 74 74 74 74 74 73 72 74 66 58 55 54 53 57 67
79 78 77 77 76 77 76 75 75 75 75 75 74 75 76 76 76 74 74 74 74 74 73 72 72 73 73 73 74 75 75 74 74 73 73 73 73 74 74 75 74 73 73 72 72 73 74 74 74 74 74 74 73 75 73 74 67 57 53 53 55 55 63
79 79 77 77 77 76 76 75 74 75 74 74 73 74 75 75 75 74 74 74 75 75 74 73 73 73 73 74 75 75 75 75 74 73 74 74 74 75 74 73 73 74 73 73 73 73 73 73 73 73 74 77 75 69 70 74 70 58 54 54 54 58 65
75 75 75 75 76 77 76 74 73 72 73 72 73 75 74 74 74 74 74 75 76 74 73 73 74 75 75 74 74 74 74 74 73 73 73 74 74 74 73 74 74 75 74 74 75 74 74 73 73 73 75 77 75 75 73 72 73 70 57 54 54 54 60
77 77 77 78 78 75 75 74 73 74 74 74 74 74 74 74 73 73 74 74 73 72 74 75 75 74 73 73 74 74 74 74 73 74 74 75 74 74 74 74 74 73 73 74 75 73 72 73 73 73 73 75 75 74 74 74 72 72 59 55 54 53 54
77 77 78 78 77 75 75 76 74 74 76 75 74 74 74 73 72 72 73 73 72 74 76 75 74 73 73 72 73 73 74 74 74 73 74 74 73 72 73 74 73 73 73 74 73 71 72 72 72 72 73 74 75 74 72 71 67 70 63 57 53 52 52
74 75 76 75 74 76 76 75 74 75 75 77 76 74 73 73 72 72 72 72 73 75 75 74 73 73 72 72 72 72 73 73 73 73 74 73 73 73 73 74 73 72 72 71 71 71 71 72 72 72 73 73 74 74 73 72 70 62 66 58 53 50 51
75 76 77 80 81 78 77 75 75 75 75 76 74 73 73 72 71 72 72 72 75 75 74 72 72 72 72 72 72 73 73 74 74 73 73 73 72 71 72 73 73 72 72 71 71 71 71 71 71 71 72 72 73 73 74 72 71 66 60 62 55 50 49
74 74 75 75 77 76 76 76 74 74 73 73 72 72 72 72 72 72 71 74 75 73 73 72 72 72 72 73 74 73 74 73 73 73 73 73 72 72 72 73 73 72 72 71 71 70 70 70 71 70 71 71 71 72 73 72 70 72 66 60 58 54 52
72 73 74 74 74 73 74 75 75 74 73 72 72 71 71 71 72 71 73 74 74 73 73 73 72 72 72 73 73 73 73 73 73 73 73 73 74 73 73 73 73 72 72 71 71 70 69 69 70 70 70 70 72 71 71 70 70 69 69 64 61 59 56
72 72 72 72 72 71 72 73 73 73 73 73 72 73 74 72 72 73 73 73 74 73 73 72 71 71 72 72 73 73 72 71 73 74 70 70 73 73 73 73 73 72 70 71 70 70 69 69 69 69 69 69 70 70 69 70 70 67 64 62 61 61 60
72 71 71 71 71 71 72 72 72 73 73 72 73 72 73 73 72 72 73 76 76 76 72 70 71 72 73 73 73 72 71 70 69 70 73 73 75 75 74 74 75 73 69 69 68 68 68 67 67 65 66 66 67 67 68 68 68 64 58 55 54 54 55
72 71 70 70 70 70 71 71 72 72 72 71 71 71 71 71 73 75 73 73 75 72 71 71 71 71 72 72 72 70 71 71 72 73 74 74 73 72 72 73 75 70 65 63 63 64 66 66 64 62 64 65 64 63 64 64 61 58 49 48 44 46 51
70 70 69 70 70 70 70 69 70 70 70 70 69 70 70 70 71 72 76 75 74 71 71 71 72 72 73 72 72 75 74 73 75 74 73 75 74 72 67 54 47 59 67 59 51 47 45 48 57 56 57 62 61 58 56 55 54 47 42 41 40 40 40
69 69 69 69 68 68 68 68 68 68 68 68 69 69 70 70 72 71 73 72 72 72 71 71 70 71 73 72 73 71 71 73 74 74 70 71 72 71 70 65 57 44 47 51 50 47 41 42 43 44 47 52 57 56 49 49 45 42 42 41 41 39 39
68 68 69 69 69 68 68 67 68 68 68 68 68 69 69 71 71 71 73 71 71 71 71 70 70 70 71 72 71 68 69 72 72 72 71 70 70 70 68 67 61 56 44 43 46 44 42 42 41 41 41 43 46 51 57 50 45 42 42 42 42 41 40

ECMWFFLT1_sfc_temp_012.txt.gz
Temp
91 89 89 88 87 87 87 86 86 85 84 84 84 85 86 85 85 84 84 83 82 82 82 83 83 83 83 83 83 82 82 82 81 81 81 80 80 79 79 79 79 79 79 79 79 79 80 80 80 80 80 80 79 79 79 79 79 80 79 79 80 79 77
89 89 89 88 87 87 87 86 86 86 85 85 85 85 86 84 84 84 84 83 83 83 83 83 83 83 83 83 83 82 82 82 81 81 81 81 81 80 80 79 78 78 79 79 79 80 80 80 80 79 79 80 80 80 80 80 79 79 79 79 79 78 78
89 89 89 88 87 87 86 86 86 87 86 87 87 87 86 84 84 84 84 84 83 83 83 83 83 83 83 83 82 82 82 82 81 81 80 81 81 81 81 80 80 80 80 79 79 79 80 80 80 79 80 79 80 80 79 79 79 79 79 79 78 78 78
87 88 88 87 86 87 86 86 86 88 89 89 88 87 86 84 85 85 85 84 83 83 82 82 83 82 82 82 81 81 81 81 81 81 81 81 80 81 80 80 80 80 79 80 80 80 80 80 79 79 79 79 79 80 80 80 80 79 79 78 78 78 78
87 88 88 86 87 86 86 86 86 87 89 91 89 87 86 86 86 85 85 85 85 83 83 83 83 83 82 82 82 82 81 81 81 81 81 81 80 80 80 80 80 80 80 80 80 80 79 79 79 79 79 79 80 80 80 80 81 80 80 79 78 78 78
86 86 86 87 87 86 86 88 89 90 90 90 88 86 87 89 89 89 87 84 84 84 83 83 82 82 81 82 82 81 81 81 81 80 80 80 80 80 80 80 80 80 80 80 81 81 80 79 79 79 80 81 81 81 81 80 80 81 79 78 78 78 78
86 86 86 87 87 87 87 88 90 91 91 90 89 88 90 91 90 90 90 86 86 83 82 83 82 82 82 82 81 80 80 80 80 80 81 80 80 80 80 80 80 80 80 80 79 80 80 79 79 79 79 80 79 79 79 78 79 79 79 78 77 77 77
87 87 87 87 88 89 89 89 89 91 90 89 89 90 91 91 90 91 89 90 89 89 87 87 84 82 82 82 82 81 81 81 81 81 81 80 80 80 80 80 80 80 80 80 80 80 80 79 80 80 79 79 79 79 79 79 78 79 79 77 77 77 78
88 88 88 89 89 90 90 88 88 88 87 86 86 86 87 87 89 89 89 89 89 89 88 90 89 84 82 82 81 81 81 81 81 81 80 80 81 82 82 84 83 82 80 80 81 81 80 80 80 79 79 78 78 78 78 79 78 79 78 77 76 76 76
86 86 86 88 89 90 89 88 87 85 83 83 83 84 84 86 86 88 89 90 91 90 88 88 88 87 83 81 81 81 81 80 80 80 81 82 82 82 83 84 84 84 82 81 81 80 80 80 79 79 78 78 78 78 78 78 79 78 78 77 77 76 75
85 85 85 86 86 86 87 87 84 81 81 81 82 83 83 84 84 86 86 88 90 90 91 88 87 86 84 82 82 82 80 80 81 81 81 81 84 83 85 86 86 84 82 81 80 81 80 80 80 79 79 78 78 78 78 79 79 78 78 78 77 76 75
84 83 82 84 84 85 84 83 82 81 81 81 82 82 82 82 83 85 85 86 89 89 88 88 88 88 85 86 83 81 80 80 80 81 81 81 82 82 82 82 81 83 85 84 84 82 83 81 81 80 79 79 79 79 79 79 78 78 78 78 77 76 76
83 82 81 82 82 83 83 81 81 81 81 82 82 83 83 83 84 85 84 84 87 87 87 85 84 83 83 84 83 81 80 81 80 81 82 81 81 81 82 83 84 85 84 84 84 84 83 82 80 80 80 79 80 79 79 79 79 78 77 77 77 76 75
80 82 82 82 82 81 80 80 81 80 81 81 82 83 83 84 85 84 84 84 86 87 87 86 83 82 82 81 80 80 80 81 81 81 80 81 80 80 80 81 81 80 81 82 82 84 83 83 81 81 81 80 80 80 80 79 78 78 77 77 76 76 75
81 81 81 81 80 80 80 80 80 81 81 81 82 82 82 83 84 84 83 85 85 87 86 84 82 81 81 80 79 79 80 80 81 81 81 80 80 80 79 80 80 80 81 81 81 82 83 82 82 80 79 80 80 80 80 79 78 79 78 77 76 76 75
81 81 81 80 80 81 81 81 81 81 81 81 82 82 82 82 82 83 83 84 86 84 85 83 81 79 79 79 79 80 80 80 80 80 80 80 79 79 79 80 80 81 80 80 81 81 81 80 80 80 80 79 79 80 79 79 79 74 66 67 74 74 74
81 82 82 81 81 81 81 82 82 82 81 81 81 81 82 82 83 83 86 87 87 84 84 83 80 79 79 79 80 80 80 79 79 79 79 79 79 79 78 79 80 80 79 79 79 79 79 79 79 80 80 80 80 79 79 79 78 67 63 63 63 70 73
81 81 81 81 81 81 81 81 81 81 82 82 82 82 82 82 83 83 83 86 86 86 85 82 81 80 79 80 80 80 79 79 79 79 79 79 79 78 79 80 79 79 79 79 79 79 80 79 79 79 80 80 80 80 80 80 72 63 63 63 63 65 71
82 82 82 81 81 80 82 83 83 82 83 83 83 83 84 84 84 82 83 83 84 84 83 82 82 80 79 80 80 80 80 79 79 79 79 79 79 79 79 79 78 78 79 79 79 79 78 78 79 79 79 79 78 78 79 80 69 62 62 62 61 62 65
82 83 83 83 82 82 82 84 84 84 85 84 85 87 86 86 84 84 85 86 84 82 81 81 81 80 80 80 80 80 80 79 79 79 79 79 79 78 78 78 78 79 80 80 79 78 78 79 78 79 78 78 78 78 79 78 71 61 61 60 60 59 62
81 82 82 82 82 83 83 83 83 84 84 85 87 87 87 86 85 85 85 85 83 82 80 80 80 80 80 80 80 80 80 79 79 78 79 79 78 78 78 78 78 79 79 80 79 78 78 78 78 78 78 79 80 79 79 80 67 61 60 59 57 57 60
83 83 82 83 82 82 82 83 83 84 84 86 86 88 88 86 87 87 86 85 83 82 81 80 80 80 80 80 80 80 80 80 79 79 79 79 78 78 78 78 78 78 79 79 79 80 80 80 80 79 79 79 80 79 78 80 66 61 59 57 56 56 68
88 86 85 85 85 84 83 84 84 86 85 85 86 86 87 88 88 86 86 85 84 82 81 81 80 80 80 80 81 81 81 81 80 79 79 79 78 78 78 78 78 79 79 78 78 79 79 79 80 80 80 79 79 78 78 80 69 57 56 56 55 59 72
89 88 86 86 85 86 84 84 86 86 86 86 85 86 87 88 87 85 83 83 83 83 82 81 80 80 80 80 81 81 81 81 80 79 79 79 79 79 79 80 80 79 80 79 78 79 80 80 80 80 80 80 80 82 79 79 70 54 54 53 55 60 70
90 89 87 87 86 85 84 84 85 85 85 85 84 85 85 85 85 84 82 82 83 84 83 81 81 81 81 81 82 82 82 82 81 80 80 79 80 80 79 79 79 80 80 80 80 79 79 80 79 79 79 83 83 76 78 80 75 56 54 53 55 61 71
84 85 85 85 87 87 85 84 83 83 84 83 83 85 84 84 84 83 83 83 85 83 82 81 81 82 83 83 82 82 81 81 80 80 79 79 79 80 80 80 81 81 81 80 81 81 81 80 79 78 79 82 83 83 81 80 80 74 53 54 54 55 65
86 87 86 88 87 84 84 84 83 83 83 84 84 84 84 83 82 81 82 82 81 80 82 83 83 82 82 81 82 82 81 81 81 80 80 80 80 81 81 81 80 80 79 80 81 80 78 78 78 78 78 80 82 82 82 82 79 75 56 56 54 55 57
88 88 89 88 84 83 84 86 84 84 86 84 84 83 83 82 80 80 81 80 79 80 83 83 82 82 81 80 81 81 81 81 81 80 80 80 80 78 78 79 80 80 79 80 79 77 76 76 76 76 77 78 80 81 79 77 70 77 61 54 52 51 51
85 85 86 85 84 85 86 85 85 86 86 88 88 85 83 82 79 79 80 79 80 82 83 82 82 81 81 80 80 80 80 80 80 79 80 79 79 78 77 79 79 78 77 76 76 75 75 74 75 75 76 77 79 80 80 78 75 62 70 57 53 50 51
85 86 86 90 90 87 87 83 83 84 85 87 85 83 82 80 78 78 79 79 82 82 82 81 81 81 80 80 79 79 80 80 80 79 79 78 78 78 77 78 78 78 77 76 75 75 74 74 75 75 76 77 77 79 80 79 78 66 60 65 57 53 50
85 85 86 86 89 85 85 85 84 83 83 82 80 81 80 80 79 78 77 80 82 81 81 80 80 80 79 79 79 79 80 80 80 79 79 79 79 77 77 77 78 76 77 76 76 75 73 73 75 75 75 75 76 77 79 79 77 78 67 62 62 57 53
83 84 85 84 83 82 83 84 84 83 82 81 81 80 79 80 80 77 78 82 81 81 81 80 79 79 79 79 79 80 80 79 79 79 79 78 80 79 79 78 78 78 77 76 75 75 74 73 75 75 75 75 77 77 77 77 77 75 75 69 65 63 59
82 83 83 83 82 81 81 82 83 82 83 82 82 82 83 81 81 80 81 81 82 81 80 80 79 77 77 78 79 79 79 78 79 80 79 78 79 80 80 80 79 78 76 76 76 76 75 74 74 75 75 74 75 76 75 77 76 72 70 68 68 69 67
81 81 81 81 80 80 81 81 80 81 80 79 81 81 82 83 82 82 81 84 85 86 80 78 78 78 78 78 79 79 79 78 76 75 78 79 79 81 81 81 81 80 77 76 76 74 74 74 73 72 73 73 75 74 73 74 72 68 63 62 62 63 65
82 81 80 80 78 78 78 77 78 77 77 78 79 79 78 79 82 85 83 82 84 82 79 78 77 77 78 79 79 78 78 78 78 78 76 75 78 76 69 70 74 76 71 67 66 68 72 74 74 73 75 75 71 69 69 69 66 63 51 51 47 49 56
81 81 79 79 79 78 77 76 76 76 76 77 77 77 77 78 79 81 85 84 83 80 77 77 78 78 79 80 80 82 81 80 81 81 80 81 81 73 67 53 47 57 71 65 53 48 45 51 64 64 68 72 70 65 63 62 61 48 42 41 41 40 40
80 80 80 80 79 77 77 76 75 76 75 76 76 76 76 77 79 79 81 81 80 80 78 77 77 78 80 80 81 79 80 80 80 80 78 77 74 73 70 68 59 44 44 50 50 46 42 42 42 44 47 56 68 62 48 50 46 42 41 41 41 40 39
80 79 79 79 78 76 75 75 75 75 74 76 76 76 76 78 79 78 81 79 79 79 77 77 76 76 78 80 81 75 75 78 77 78 78 77 76 73 69 68 63 57 45 43 45 44 42 41 41 41 42 43 46 55 65 54 47 42 41 42 41 41 39

ECMWFFLT1_sfc_temp_015.txt.gz
Temp
95 95 92 91 91 92 92 91 90 89 87 87 87 88 89 88 87 86 86 85 84 84 84 84 84 85 85 85 85 85 85 84 84 83 83 82 82 82 81 81 81 81 81 81 81 81 81 82 82 82 82 82 81 82 81 81 80 80 80 80 79 78 79
94 95 94 90 92 92 92 91 90 89 88 87 87 87 89 87 87 86 86 86 85 84 84 84 84 85 85 85 85 85 84 84 84 83 83 82 82 83 83 82 81 81 81 81 81 81 81 82 82 81 81 81 82 82 82 81 80 80 80 80 79 78 78
92 93 94 92 90 90 90 91 89 90 89 89 89 89 88 86 86 86 86 86 85 85 85 85 85 85 86 85 85 84 84 84 84 83 82 83 83 83 83 82 82 82 83 82 81 81 82 82 82 81 81 81 81 81 81 81 81 80 80 79 79 78 78
91 93 94 93 91 90 88 88 90 91 91 91 90 90 88 86 87 87 87 86 85 85 84 85 85 85 85 84 84 84 84 84 83 83 83 83 83 83 82 82 82 83 82 82 83 82 82 82 81 81 81 80 81 81 81 81 81 81 80 80 79 79 78
93 94 94 92 92 90 91 91 90 90 91 93 91 89 89 88 88 88 88 87 88 85 86 86 86 86 85 85 85 84 84 84 83 83 83 83 82 82 81 82 83 83 82 83 83 82 81 81 81 81 81 81 81 82 81 82 81 81 80 80 78 79 78
94 92 93 93 91 90 90 92 93 93 93 93 90 89 90 91 92 92 90 87 87 87 86 86 85 85 84 85 84 84 84 84 83 83 82 82 82 82 82 82 82 82 82 82 83 83 82 81 81 81 81 82 82 82 82 81 81 81 80 79 78 78 78
92 93 92 93 91 91 90 92 93 95 95 94 92 92 93 93 93 93 92 89 89 86 86 86 86 85 84 85 84 83 83 83 83 83 83 83 82 82 82 82 82 82 82 82 81 82 82 81 81 81 81 81 80 80 80 80 80 80 79 78 78 78 78
93 93 93 93 93 92 93 92 92 95 95 94 93 93 93 94 94 95 93 93 92 92 90 90 86 85 84 84 84 84 83 83 84 84 83 82 82 82 82 82 82 83 82 82 82 82 82 81 81 81 81 81 80 80 80 80 80 81 79 78 77 78 79
94 93 93 94 93 92 91 91 92 92 91 91 89 89 91 92 94 94 94 94 93 92 91 93 90 86 84 84 84 83 84 83 83 83 82 82 82 83 84 86 85 85 83 83 83 83 82 82 81 80 80 80 80 80 80 80 80 80 79 78 77 77 77
92 91 91 94 92 92 90 92 92 89 88 88 87 87 89 91 91 93 94 95 95 93 92 93 93 91 85 84 84 84 83 83 83 82 84 85 84 84 85 86 86 86 85 84 84 83 82 82 81 81 80 80 79 80 80 80 79 79 79 78 78 77 77
91 90 90 91 89 90 91 91 89 87 87 86 86 87 88 89 90 91 91 93 94 94 95 92 91 91 88 85 85 84 83 83 83 83 83 83 86 86 87 88 88 86 84 83 83 84 84 83 84 81 80 80 80 79 79 79 79 79 79 79 79 78 78
90 89 88 89 90 90 89 88 87 87 86 86 86 87 86 86 88 89 89 90 94 94 93 92 93 92 89 89 86 84 84 83 83 83 84 84 84 85 85 84 83 85 86 87 87 85 85 83 83 82 80 80 79 79 77 76 78 79 79 79 79 79 78
90 88 88 89 89 89 88 87 86 86 86 86 86 86 86 87 87 89 87 88 91 92 92 90 90 88 88 88 88 85 84 84 83 83 84 83 83 83 84 85 86 86 85 85 85 85 85 85 83 83 81 80 80 79 79 77 77 78 79 78 78 78 77
86 89 88 88 88 88 87 86 86 85 84 84 85 85 86 87 87 86 85 87 89 91 92 91 87 86 85 85 84 83 83 84 84 83 83 83 82 82 82 82 82 81 82 83 83 84 84 84 83 83 82 81 81 81 80 79 80 79 79 78 78 78 77
88 88 87 87 86 87 87 86 84 83 83 84 85 85 85 86 86 85 86 88 87 90 90 89 86 84 85 84 82 82 83 83 83 83 83 82 82 81 81 81 81 81 81 82 82 83 84 84 83 81 80 81 81 81 81 79 79 80 79 78 78 77 77
88 88 88 87 86 87 87 87 84 83 84 84 84 84 85 85 84 85 84 86 88 88 90 87 84 83 83 83 82 82 83 82 82 82 82 81 81 80 81 81 81 81 81 81 82 82 81 80 80 81 80 80 80 80 80 80 79 70 68 70 75 76 76
88 88 88 87 86 87 87 86 85 84 84 84 84 84 84 84 84 80 85 88 90 87 88 87 84 83 82 82 83 82 82 81 81 81 81 81 81 81 80 80 80 80 80 80 80 80 79 80 80 80 81 81 80 80 80 78 76 66 66 66 67 73 75
89 88 88 87 87 86 85 85 85 84 84 85 84 84 84 83 82 83 85 89 89 90 89 86 84 83 82 82 82 82 81 81 81 81 81 81 80 80 80 80 80 79 80 80 80 80 80 80 79 79 80 81 81 80 79 80 71 61 64 65 65 67 73
89 89 88 87 86 85 86 87 86 85 86 86 85 85 85 84 85 84 86 86 87 88 88 86 85 83 82 82 82 82 81 81 81 81 80 80 81 80 80 79 79 79 80 80 81 81 79 78 79 79 80 80 79 79 80 81 69 61 63 64 64 64 67
89 90 90 89 88 88 87 87 87 87 87 86 87 89 88 86 86 87 88 89 88 87 86 84 84 83 82 82 82 82 82 81 81 80 80 81 80 80 80 79 79 80 81 81 80 80 79 79 79 80 79 79 79 79 80 80 70 61 62 62 62 62 65
87 87 88 88 87 88 86 86 86 86 86 87 89 89 89 88 89 89 88 88 87 86 84 84 83 82 82 82 82 82 82 81 81 80 80 80 80 80 79 79 79 79 80 81 80 79 79 79 79 79 80 81 81 81 80 81 65 60 61 60 59 60 63
89 89 87 88 86 86 85 86 86 87 86 88 89 90 91 89 91 91 88 88 87 86 84 83 82 82 82 82 82 82 82 82 81 80 80 80 80 80 79 79 79 79 80 80 81 80 81 80 81 80 81 81 81 81 79 82 62 60 59 59 58 59 68
93 90 90 89 89 87 87 88 88 88 88 88 89 90 90 92 91 90 89 88 88 86 85 84 82 82 82 82 83 83 83 82 82 81 80 80 80 80 80 79 79 80 81 79 80 80 80 79 81 81 81 81 80 79 75 78 70 58 57 57 57 60 73
95 92 90 90 89 89 87 88 89 89 89 89 89 90 91 92 91 89 87 87 87 87 85 83 83 83 82 82 83 83 83 83 82 81 81 81 80 80 80 81 81 81 81 80 80 80 81 81 81 81 81 81 81 80 77 78 71 55 53 53 55 61 73
95 93 91 90 89 88 88 87 88 88 88 89 88 89 91 90 91 89 87 87 88 88 85 83 83 83 83 83 84 84 84 84 83 82 82 81 81 81 81 81 81 82 82 82 81 80 79 81 81 81 81 83 78 73 76 78 70 53 53 53 55 60 71
90 90 90 90 91 89 87 87 87 87 88 88 87 89 90 90 90 88 87 87 89 87 85 84 84 85 85 85 84 84 83 83 82 81 82 81 81 81 81 82 82 82 83 81 82 82 82 82 81 79 81 81 79 79 79 76 72 64 52 54 54 56 66
92 91 90 92 91 87 87 87 87 88 88 88 88 89 90 90 87 86 86 86 85 84 86 86 86 85 85 84 85 85 84 83 82 81 82 82 82 82 82 82 82 81 81 82 82 81 80 80 79 79 79 81 81 80 77 75 72 65 54 52 54 54 58
92 93 94 91 87 87 88 90 87 88 90 89 89 89 90 87 85 84 85 84 84 85 88 87 86 86 84 83 84 84 84 83 81 81 82 81 81 80 79 81 81 81 80 82 81 78 78 78 77 77 78 78 78 74 70 73 73 72 56 53 50 50 52
90 91 90 87 87 90 91 89 88 89 90 92 92 90 89 87 84 83 83 82 84 86 87 87 86 86 84 83 83 82 82 82 82 81 82 81 80 80 78 79 79 78 78 78 78 76 76 76 76 76 77 76 75 74 76 76 71 63 66 53 52 49 51
90 91 90 93 93 91 93 88 89 90 91 93 92 90 89 86 83 82 82 82 85 86 86 86 85 85 83 82 81 82 82 82 82 81 81 80 79 79 78 78 77 76 74 74 75 76 75 75 76 75 74 75 76 76 76 70 69 63 64 65 55 52 50
90 90 91 92 93 91 91 90 87 88 88 88 87 87 86 85 83 82 81 83 85 85 85 85 84 83 81 81 80 80 82 82 81 81 81 80 79 77 77 77 77 74 75 73 71 72 75 74 76 75 72 72 75 75 74 76 72 69 65 61 65 60 56
89 91 92 92 89 88 89 90 89 88 86 85 85 84 83 84 84 81 81 84 84 84 85 84 83 81 80 80 79 79 81 81 81 80 80 80 80 78 77 75 76 76 73 71 68 73 75 74 73 72 74 73 72 75 75 75 77 68 72 70 68 65 61
87 88 88 86 85 86 87 88 88 87 87 86 87 87 88 86 85 83 83 83 85 85 84 83 81 79 79 78 80 80 78 78 79 77 78 78 78 76 79 81 79 77 73 69 67 74 73 69 75 75 73 69 73 76 77 77 78 74 72 70 68 68 66
85 86 86 85 85 86 86 86 86 85 84 83 84 85 86 87 87 87 87 88 89 89 85 81 80 80 80 80 79 78 78 77 75 77 78 76 75 77 80 79 77 71 68 68 69 74 72 76 75 74 72 73 78 77 76 74 75 70 65 64 62 61 62
84 83 83 83 83 84 83 83 83 82 82 82 83 83 83 84 86 88 88 89 88 85 83 81 79 80 80 80 79 78 77 78 79 77 76 75 77 74 72 72 76 74 71 69 70 72 77 78 77 77 80 79 76 73 71 72 70 64 50 53 47 50 56
84 84 83 84 84 83 81 81 81 81 81 81 82 82 82 82 83 85 88 89 89 86 82 80 79 80 80 80 81 79 77 78 78 77 75 73 71 71 64 50 44 54 73 68 51 46 47 54 67 67 73 75 71 68 70 69 64 47 43 42 41 41 41
83 82 83 84 82 81 80 79 80 80 80 80 80 81 80 81 83 83 85 84 84 83 81 79 78 79 82 82 84 81 80 81 78 73 72 76 77 73 72 69 59 44 43 50 49 46 41 41 42 44 48 59 70 60 47 50 47 43 42 41 42 40 40
84 84 84 84 81 79 79 79 79 80 79 80 80 80 80 82 83 81 84 84 82 81 80 79 78 78 80 81 82 76 76 74 77 79 80 79 76 71 70 70 66 59 45 41 45 44 41 41 41 41 42 42 48 57 65 53 48 43 42 42 42 42 40

ECMWFFLT1_sfc_temp_021.txt.gz
Temp
86 85 85 85 84 84 82 82 82 81 80 79 79 80 80 79 78 77 77 76 76 75 75 75 75 75 75 75 75 75 74 74 73 72 71 71 71 70 71 69 70 69 69 70 69 70 71 73 73 73 73 74 73 72 72 73 72 73 71 71 71 70 70
85 84 84 84 84 83 82 82 82 82 80 80 80 80 80 78 77 77 77 76 76 75 76 75 76 75 75 75 75 74 74 73 75 75 73 72 73 70 70 70 70 70 71 70 70 69 72 72 73 72 72 73 72 72 72 72 72 71 71 71 70 69 69
84 84 83 83 83 81 81 82 82 82 81 81 81 80 79 78 78 78 77 76 75 75 75 75 76 75 75 75 74 74 74 74 73 73 71 71 71 72 71 71 70 71 70 71 71 72 72 71 71 72 72 71 71 72 71 71 71 71 70 70 70 69 68
83 83 82 83 83 82 83 82 82 83 82 82 82 81 79 78 78 78 78 77 76 76 74 75 75 75 74 74 74 74 74 74 73 73 73 71 70 70 71 70 69 70 72 70 72 72 74 72 71 71 74 71 70 70 71 71 71 71 70 70 69 69 69
82 81 82 82 82 81 82 81 82 82 82 83 82 81 80 79 79 78 78 78 78 76 76 76 77 76 75 75 75 75 75 74 73 73 72 71 71 70 70 71 70 70 70 71 72 72 71 71 70 70 70 70 70 70 70 70 71 71 71 71 69 70 70
82 79 80 81 82 81 82 83 84 83 83 83 81 81 80 81 81 80 79 78 77 77 76 76 76 75 75 75 75 75 74 74 74 73 73 71 70 71 70 70 71 71 71 71 72 71 71 71 71 70 70 70 71 71 71 71 72 72 72 71 70 70 70
79 78 80 82 82 82 83 83 84 84 84 83 82 82 82 82 81 81 80 78 79 76 76 76 76 76 75 75 74 75 73 73 73 73 72 72 71 70 70 70 72 71 72 71 70 71 71 71 71 71 71 70 70 70 70 70 70 70 70 70 69 69 69
80 78 79 82 83 84 84 84 83 84 83 82 82 82 82 82 82 82 80 80 80 79 78 78 76 76 75 75 75 74 74 74 74 73 72 72 72 72 71 71 71 72 70 70 71 71 72 72 72 71 71 70 69 69 69 69 69 70 70 69 69 68 70
81 81 81 83 84 85 84 83 83 82 81 81 81 81 82 81 82 82 81 81 81 80 79 80 78 77 75 75 75 74 74 74 74 74 73 73 72 73 72 73 73 73 71 71 72 72 72 73 72 71 70 70 70 69 69 69 69 69 70 69 68 68 68
79 80 81 84 85 84 83 83 82 79 79 79 79 79 80 81 81 82 82 82 82 81 80 81 79 78 76 75 75 75 74 74 74 74 74 73 72 73 74 75 74 73 72 72 72 72 70 71 70 70 69 70 69 69 69 68 69 69 69 69 68 67 67
77 79 80 82 82 81 81 81 78 78 78 78 78 79 79 80 81 81 81 82 82 82 82 81 80 79 77 76 76 75 74 75 74 73 73 73 74 75 76 76 75 72 72 70 70 70 69 70 70 70 69 71 70 69 68 68 69 69 68 68 67 67 65
77 77 78 81 81 80 79 80 79 77 77 77 78 78 78 78 80 81 80 82 84 83 82 82 81 80 78 78 77 74 74 74 74 74 74 74 74 74 74 74 71 71 73 71 73 73 73 72 70 71 69 70 69 68 68 68 68 68 68 68 67 66 64
77 78 77 80 79 80 80 77 77 77 77 77 78 78 78 78 80 80 77 81 84 83 82 81 80 79 77 78 77 74 74 74 74 73 74 73 73 74 73 73 75 75 73 74 74 74 72 71 69 70 70 69 70 71 70 69 68 68 68 68 66 65 65
79 78 77 79 78 78 77 77 77 76 76 77 77 77 78 78 80 80 78 79 83 83 83 82 79 78 78 77 76 75 74 75 74 73 73 73 72 72 72 71 70 70 70 73 72 72 70 70 72 71 70 70 71 69 69 68 68 68 67 67 66 66 65
77 78 78 78 78 78 77 76 75 76 76 76 77 77 77 78 78 79 78 79 77 82 82 78 78 77 77 76 76 75 75 75 74 74 73 73 72 71 71 70 69 70 70 71 70 72 71 71 72 71 69 69 69 68 69 70 70 69 69 67 65 65 66
77 78 78 77 77 78 78 77 76 76 76 76 77 77 77 77 78 78 78 77 78 76 77 77 76 76 76 74 74 75 74 73 74 73 73 72 71 71 70 70 70 71 70 70 71 70 69 69 69 69 69 68 67 67 69 70 71 70 68 69 69 67 68
76 78 78 79 76 78 78 77 77 76 76 77 77 78 78 77 77 77 79 79 77 75 76 77 75 74 74 73 73 73 73 72 72 72 71 71 71 70 70 70 70 70 70 70 69 70 70 70 68 70 69 69 68 68 69 70 72 69 65 66 67 68 67
74 74 77 78 77 77 76 77 76 76 76 77 78 78 78 76 76 77 77 77 76 75 75 74 74 73 72 74 73 73 72 72 71 70 70 70 70 69 69 69 69 69 69 69 69 69 70 69 69 69 68 69 68 68 69 69 71 67 64 65 65 66 67
77 77 76 76 76 76 77 78 78 78 78 79 79 78 78 77 76 76 74 74 73 73 74 73 72 72 72 72 73 72 72 70 71 70 69 69 69 69 69 69 69 69 69 69 70 68 68 68 68 68 68 68 67 68 69 69 69 66 65 63 63 64 65
78 79 76 78 78 77 77 77 78 78 79 79 80 80 79 79 77 74 74 73 71 70 71 73 73 73 72 73 73 72 72 71 70 70 70 70 70 70 70 70 70 70 71 70 69 69 68 68 68 68 68 68 67 68 69 68 66 65 64 62 61 62 64
75 76 76 75 76 78 75 76 77 77 77 78 80 79 78 76 74 74 72 71 71 72 71 71 73 73 73 73 72 72 71 71 70 70 70 70 70 70 70 70 70 70 70 71 69 68 68 68 68 67 68 68 69 69 69 70 62 62 63 61 59 59 63
75 77 76 76 75 75 77 77 77 78 78 79 80 80 78 75 76 75 72 73 73 70 70 71 73 74 74 73 73 72 72 71 70 70 70 70 70 70 70 70 70 70 70 70 69 69 69 68 68 68 68 68 69 69 67 68 61 62 61 60 58 60 63
81 79 81 77 78 77 80 80 79 80 79 80 80 79 77 76 77 75 72 72 70 70 71 72 73 74 74 74 74 73 73 72 72 71 71 71 71 71 71 70 70 70 70 70 69 69 69 69 69 69 69 69 69 66 65 66 64 59 58 57 57 59 62
85 81 79 79 77 79 78 80 81 80 81 80 80 79 77 77 76 74 72 71 71 72 72 73 74 74 74 74 74 74 73 73 73 72 72 71 71 71 71 71 70 70 71 70 69 69 70 70 69 69 69 69 68 69 67 68 59 54 53 55 55 60 62
84 81 80 79 80 78 79 79 80 80 80 80 79 77 77 77 77 75 74 74 74 75 74 74 74 74 74 74 74 74 74 74 73 73 72 72 73 73 72 71 71 72 71 71 71 70 69 70 69 68 69 70 70 71 71 68 59 50 51 53 54 57 61
77 79 79 79 79 78 78 78 79 79 79 79 78 78 77 78 77 76 75 75 76 76 74 73 74 75 75 75 75 74 74 74 74 73 73 73 73 73 73 72 72 72 72 71 71 70 70 70 70 69 70 71 71 70 69 67 64 57 52 52 53 56 60
80 80 80 81 79 78 77 76 78 79 79 79 79 78 78 78 77 76 76 75 74 74 75 76 75 74 75 74 74 74 74 75 74 74 74 74 74 74 74 73 72 71 71 71 71 70 69 70 70 70 69 69 67 66 66 69 66 59 52 51 53 55 57
81 82 82 80 78 78 77 77 76 77 79 78 79 79 79 78 76 76 76 75 75 76 77 76 75 75 75 74 74 75 75 75 75 75 75 72 69 66 66 67 68 68 67 66 67 69 68 68 67 67 67 65 65 66 65 67 70 61 55 52 51 52 53
78 78 78 77 77 78 79 76 76 78 79 81 82 81 80 79 77 76 76 75 75 76 76 76 77 76 75 74 74 74 75 75 75 72 69 66 66 66 65 66 66 66 66 66 65 65 65 66 65 65 63 62 62 63 64 64 65 63 60 52 50 48 49
75 75 76 79 80 78 76 71 68 66 73 79 79 79 79 78 76 75 74 74 75 75 75 74 74 74 73 73 73 72 72 73 71 68 66 66 65 64 63 64 65 65 65 64 62 60 60 63 64 63 62 62 61 61 63 64 64 62 63 57 50 47 47
75 75 74 73 70 69 69 68 66 66 66 71 76 77 77 77 76 75 74 74 75 75 74 74 74 74 73 72 71 71 71 69 66 65 64 65 64 63 63 63 64 63 63 63 62 61 60 60 62 61 61 60 61 62 63 65 63 62 63 61 56 50 47
73 73 72 72 70 68 67 67 68 67 67 68 73 75 76 77 77 74 74 75 75 75 74 73 72 72 72 72 71 69 68 67 64 63 64 64 64 63 63 64 64 62 60 60 62 61 60 59 59 60 60 60 61 61 61 63 63 62 62 63 63 59 57
70 70 70 69 68 68 67 67 66 67 67 68 71 73 76 78 77 76 75 75 75 75 73 72 71 71 71 72 71 68 67 65 64 63 63 62 63 63 63 63 62 61 60 60 60 61 60 60 60 60 60 60 61 61 61 62 61 61 59 59 57 57 57
68 68 67 68 69 68 67 66 66 67 67 66 69 75 77 78 77 77 76 78 79 76 73 72 72 72 70 71 69 68 67 66 71 65 62 63 63 62 62 61 62 61 60 60 60 59 60 61 61 61 61 61 61 61 60 59 58 56 57 56 55 55 53
67 67 67 68 68 68 66 67 67 67 66 66 69 73 74 75 78 81 77 76 74 72 73 72 72 70 69 69 68 67 68 65 64 63 62 62 60 54 52 53 56 59 58 52 55 58 61 62 61 62 63 61 59 59 59 59 58 57 53 53 50 49 51
65 67 67 68 69 69 68 68 67 67 67 67 68 71 72 73 75 78 79 76 75 72 72 71 71 70 71 70 70 70 68 66 63 63 63 62 58 53 52 49 44 46 57 55 49 45 44 47 58 58 58 56 53 57 59 60 58 49 45 44 43 42 42
66 66 67 68 69 68 67 67 69 69 69 70 70 71 72 72 72 72 73 73 73 73 71 69 68 67 70 70 71 67 67 65 63 63 63 63 60 56 55 53 49 42 43 47 47 43 40 40 42 45 52 56 53 52 51 50 46 44 44 42 41 41 40
68 68 68 69 69 68 68 68 69 69 69 68 69 69 70 71 71 72 75 73 72 72 70 68 66 67 67 68 67 67 66 65 66 65 64 64 62 59 57 55 52 50 43 41 43 42 40 39 41 44 47 49 51 51 50 47 43 42 41 41 41 42 41

ECMWFFLT1_sfc_temp_024.txt.gz
Temp
81 80 81 81 80 80 79 79 79 79 78 77 78 78 78 78 77 76 75 74 74 73 72 72 72 72 72 72 72 71 71 71 71 70 69 68 69 68 68 67 68 68 68 67 68 67 69 69 69 69 68 68 68 68 68 68 69 72 69 68 68 67 66
80 80 80 80 80 80 79 79 79 80 78 78 78 78 78 77 76 76 75 74 74 74 73 73 73 72 72 72 72 71 71 71 72 73 71 71 71 68 68 68 68 67 67 68 67 68 69 69 69 68 69 69 69 68 68 68 69 68 69 68 67 66 66
79 79 80 80 80 79 79 79 79 80 79 79 79 78 78 77 77 76 75 74 74 73 73 73 73 72 73 72 72 71 71 71 71 71 69 70 69 69 68 68 67 68 68 67 67 68 70 69 68 68 68 68 68 68 68 68 68 68 68 68 69 69 65
78 79 80 80 80 80 80 79 79 80 80 80 79 79 78 77 77 77 76 75 74 73 72 73 73 73 73 72 72 71 71 71 71 71 71 69 69 68 68 68 68 67 68 67 69 70 71 69 68 68 72 68 68 68 68 68 68 67 68 68 67 67 67
78 79 79 79 79 78 78 78 79 80 80 81 80 79 79 78 77 77 76 76 76 74 74 74 75 74 74 73 73 72 72 71 70 70 70 70 69 68 68 68 67 67 68 67 67 70 68 68 68 68 68 68 68 67 68 67 67 67 67 67 67 67 67
77 77 77 79 79 79 79 79 81 81 80 80 79 79 78 78 78 78 77 76 75 75 74 74 74 74 73 73 73 72 72 71 71 71 70 69 69 68 68 69 68 67 66 67 69 68 68 68 68 68 68 68 68 68 67 66 67 67 67 66 67 68 68
77 77 77 79 79 79 79 80 81 81 81 81 80 80 79 79 78 78 77 76 76 74 73 73 74 74 73 73 73 72 71 71 70 70 70 70 70 70 69 68 69 68 69 67 67 68 68 68 69 68 68 68 68 68 67 67 67 67 67 66 67 67 67
79 77 77 79 80 80 80 80 81 81 81 80 79 79 78 78 78 78 77 77 77 76 75 75 74 74 73 72 73 72 72 71 71 71 70 70 69 70 69 68 68 69 67 67 69 68 69 69 69 68 68 68 67 67 68 67 67 67 66 66 66 66 68
80 79 78 80 80 81 81 80 80 80 79 78 79 78 78 78 78 78 78 78 77 76 76 77 75 74 73 72 72 72 72 71 71 70 70 71 69 70 69 69 69 69 68 68 69 68 69 69 69 68 68 67 67 67 67 67 67 67 67 66 66 66 66
74 73 76 80 81 81 80 80 79 78 78 77 77 77 77 77 78 78 78 78 78 77 77 77 76 75 73 72 72 72 71 71 71 71 71 72 71 71 71 71 71 70 68 68 68 68 69 68 68 68 68 67 68 67 67 67 67 67 67 67 66 66 66
74 75 74 76 77 77 77 78 77 77 77 77 77 77 77 77 77 78 77 78 78 78 78 78 76 75 74 73 72 72 71 71 71 71 71 72 72 72 72 72 72 70 69 69 68 68 68 68 68 67 67 68 67 66 66 67 67 67 67 67 67 66 66
73 73 73 75 75 75 76 77 77 77 77 77 77 77 77 77 77 77 78 78 79 78 78 78 77 76 74 74 73 72 72 72 71 72 72 72 72 72 72 72 70 69 70 69 68 67 67 66 66 68 65 65 66 65 66 66 66 67 67 67 67 66 65
73 73 73 74 74 76 76 75 75 76 77 77 77 77 77 77 77 78 77 77 79 79 78 77 76 75 74 74 74 72 72 72 72 72 72 72 71 71 71 71 71 71 70 69 70 69 68 66 65 66 66 66 65 65 66 66 66 66 66 66 66 65 64
76 73 74 75 74 73 75 75 75 75 76 76 76 77 77 77 78 77 77 77 78 79 78 78 76 75 74 74 73 73 73 73 72 72 72 72 71 70 70 70 69 69 69 69 68 68 67 66 66 65 66 66 66 66 66 65 64 64 64 65 66 65 65
73 74 73 74 74 74 75 75 75 75 75 76 76 76 76 76 77 77 77 78 78 79 78 77 75 74 74 74 72 73 73 73 72 72 72 72 70 69 69 69 68 67 68 68 68 69 66 66 66 65 65 65 65 65 66 67 67 67 65 65 66 65 65
75 75 75 74 74 75 75 76 76 75 75 74 75 75 75 75 76 76 76 77 78 78 78 76 75 74 74 73 73 73 73 72 72 72 71 70 70 69 69 69 68 68 67 67 67 66 66 66 66 65 66 66 64 64 66 67 67 69 68 68 67 65 66
74 76 76 76 75 75 76 75 75 75 74 74 74 75 75 75 76 76 77 78 78 77 77 76 75 74 74 73 74 74 73 72 71 71 70 70 70 68 68 67 68 67 67 66 66 67 67 67 65 66 66 66 66 65 66 67 68 68 65 65 67 67 65
72 73 74 75 75 75 75 75 74 73 73 74 75 75 75 75 75 76 76 76 77 77 76 76 75 74 73 74 74 73 72 72 71 70 70 69 69 68 68 67 67 67 66 66 66 66 67 66 66 67 67 68 67 67 67 67 69 65 64 65 65 67 67
71 72 73 73 73 74 75 76 75 74 75 75 75 75 76 76 76 75 76 74 74 75 75 75 75 74 73 73 73 72 72 72 71 70 69 69 69 68 67 67 67 67 66 67 68 66 66 67 66 67 67 67 67 67 68 67 68 64 63 63 64 64 66
71 72 72 73 73 74 75 76 76 76 76 76 76 78 78 77 77 77 76 75 73 74 74 74 74 74 73 73 72 72 71 71 71 70 69 68 68 67 67 67 68 68 68 67 67 67 67 67 67 67 67 67 67 67 68 67 67 64 63 62 62 63 64
73 73 74 74 74 74 73 74 75 75 74 75 77 77 76 75 75 74 73 73 72 72 73 73 73 72 72 71 70 70 69 69 69 69 68 68 67 67 67 67 67 67 67 67 67 67 67 67 67 68 68 68 68 67 67 68 64 62 62 60 59 60 63
73 73 73 73 73 73 74 74 75 75 75 77 77 76 76 75 74 74 73 72 73 72 72 72 72 71 70 70 69 69 69 69 69 69 68 67 67 67 67 67 67 67 66 67 67 68 68 68 68 68 68 68 68 68 67 68 64 61 61 60 58 60 63
77 74 75 73 74 75 75 76 76 77 76 76 76 76 75 74 74 74 72 72 71 70 69 69 68 68 68 68 70 70 70 70 69 68 68 67 67 67 67 67 67 66 66 67 67 67 67 67 68 68 68 68 68 67 67 68 63 59 58 58 58 60 61
75 74 73 73 72 74 74 74 75 74 75 75 76 76 75 74 74 73 72 70 68 68 68 71 69 68 69 70 71 71 70 70 70 69 68 67 67 68 69 68 65 66 67 68 67 67 68 68 67 68 68 69 69 69 68 69 64 57 56 56 57 61 61
76 75 75 76 76 74 73 74 74 74 74 74 74 74 74 74 74 73 71 69 69 68 66 68 68 69 70 71 72 72 71 70 70 70 69 68 69 70 68 66 66 69 69 69 69 69 69 69 67 65 64 65 67 71 70 69 63 54 55 55 54 59 60
73 73 74 73 74 75 74 73 73 73 74 74 74 74 74 74 73 71 70 69 69 67 68 69 71 72 73 73 73 72 71 71 70 70 70 70 69 68 67 67 67 67 68 67 68 67 65 63 63 63 63 64 65 68 69 68 64 57 51 51 53 56 61
75 76 75 75 74 75 73 73 74 73 73 71 71 71 70 69 67 67 67 68 68 69 70 72 73 73 73 72 72 71 71 71 71 71 71 70 69 69 67 66 65 64 64 66 64 63 62 62 62 62 62 63 65 66 66 67 64 59 51 51 52 56 58
76 75 75 75 74 73 73 73 72 71 69 68 69 68 67 67 67 67 66 66 66 69 73 73 73 73 72 71 72 72 72 71 70 71 70 68 67 65 64 65 65 65 64 63 62 62 62 62 61 61 61 62 63 63 62 64 66 60 54 52 51 52 55
73 73 72 72 73 74 74 71 70 69 67 68 69 68 68 68 67 66 67 65 68 72 74 74 73 72 72 71 71 71 71 70 70 69 67 66 66 65 64 64 64 64 64 63 63 62 62 61 60 60 59 60 59 61 62 62 65 62 59 53 50 50 51
70 70 69 70 71 70 70 67 67 67 68 68 68 68 68 67 66 66 66 66 71 73 73 72 72 72 71 71 71 70 69 69 68 66 65 65 65 64 63 63 63 62 62 62 62 60 60 59 60 59 59 59 58 59 60 62 62 62 60 56 50 48 47
68 68 67 67 68 68 69 68 66 66 66 66 67 67 68 68 67 68 67 68 72 73 73 73 72 72 71 70 70 69 68 66 65 65 64 64 64 63 62 63 63 61 62 61 60 59 59 59 59 59 58 58 58 58 58 61 62 61 61 58 53 48 47
66 66 66 66 65 67 67 67 66 66 65 65 67 67 68 68 69 67 66 68 69 70 69 69 69 70 70 69 68 67 65 63 63 63 63 63 63 63 63 63 62 61 60 60 60 59 59 59 58 58 58 58 57 58 59 61 61 60 60 60 58 53 49
65 65 65 65 66 68 67 67 66 66 66 66 66 67 67 67 67 66 66 66 66 69 70 68 68 69 68 68 67 65 64 63 62 61 61 61 61 61 62 61 61 61 60 60 59 59 59 58 58 58 57 58 58 58 59 60 61 59 59 58 56 56 56
63 64 64 64 65 66 66 66 66 66 65 64 65 67 67 67 67 67 67 67 67 71 70 70 69 69 68 68 68 66 65 63 67 63 60 60 61 60 61 60 60 60 60 59 59 58 58 58 58 58 58 58 58 59 58 58 58 57 56 55 54 54 51
62 62 63 63 64 64 65 65 65 64 64 64 64 66 66 67 68 70 69 71 72 70 69 68 70 69 68 68 67 66 67 65 66 62 61 59 55 52 53 55 58 59 59 55 53 56 59 60 58 59 59 60 59 58 58 58 57 56 54 54 53 51 50
62 62 63 63 64 64 65 64 64 64 64 64 64 65 66 66 68 71 73 70 68 66 68 68 69 69 69 67 67 67 66 63 62 61 60 57 53 52 51 48 43 45 54 55 50 45 42 46 58 58 58 56 54 56 59 59 57 50 46 44 43 43 44
63 63 63 64 64 63 64 64 65 65 65 65 66 67 66 66 68 66 67 67 67 68 68 68 67 66 66 65 65 64 65 62 60 60 59 57 54 53 52 50 49 41 42 45 46 43 39 38 40 42 47 56 54 51 48 50 46 43 43 42 42 41 41
64 65 66 66 66 65 65 65 65 66 66 65 65 66 66 65 64 65 67 67 68 68 67 66 66 65 63 61 62 65 63 60 61 61 60 58 55 54 53 51 50 49 43 40 42 42 39 38 41 43 46 50 52 51 51 46 43 41 42 42 41 41 41

ECMWFFLT1_sfc_temp_027.txt.gz
Temp
78 77 77 78 78 78 77 77 77 76 76 76 76 76 76 76 76 76 75 75 74 74 72 72 72 71 71 70 70 69 70 70 69 68 67 67 68 66 66 66 67 66 66 66 66 65 68 67 66 67 66 67 66 67 66 67 67 68 67 67 66 66 66
77 77 77 77 77 77 77 77 77 77 77 77 77 77 77 76 76 76 76 75 75 74 72 72 72 71 71 71 70 69 69 69 70 71 69 68 69 67 67 67 67 67 66 67 66 66 66 67 67 67 67 67 67 66 66 66 67 66 67 66 66 65 65
76 77 77 77 77 77 77 77 77 77 77 77 77 77 77 76 77 76 76 75 74 74 73 72 73 72 71 71 69 69 69 69 69 69 68 68 67 67 67 68 67 67 67 67 66 67 67 67 67 66 67 67 67 67 66 66 66 67 66 66 67 67 64
76 76 77 78 78 78 77 77 77 78 78 78 78 78 77 77 77 77 76 75 74 74 72 72 73 72 71 70 70 69 69 69 70 70 69 69 68 67 67 67 67 67 67 67 67 67 69 68 67 66 70 67 67 66 66 66 66 66 66 66 66 66 66
76 77 77 77 77 76 76 76 77 77 78 79 79 78 78 78 78 77 76 76 76 74 74 73 73 73 72 72 72 71 70 69 69 69 69 69 69 67 67 67 67 67 68 68 66 68 68 67 67 66 66 67 67 66 66 66 66 66 65 65 65 66 66
76 75 76 77 77 77 77 77 78 79 79 79 78 78 78 78 78 77 77 76 75 75 74 73 73 73 71 72 72 71 70 69 70 69 69 69 68 67 67 68 67 67 67 67 67 67 67 67 67 67 67 67 67 66 66 65 66 65 65 64 65 66 66
76 76 76 77 77 77 77 77 79 79 80 80 80 79 79 78 78 78 77 76 76 75 74 73 73 73 72 72 72 71 70 69 69 69 70 69 68 68 68 68 68 68 68 66 66 66 66 66 67 67 67 67 67 66 66 66 66 66 65 64 65 65 65
77 77 77 78 78 78 78 78 78 80 80 79 78 78 78 78 78 77 77 77 77 76 75 75 73 73 72 72 72 71 71 70 70 70 69 69 68 68 67 67 68 68 66 66 67 66 67 66 67 66 66 66 66 66 66 66 66 66 65 65 64 64 66
78 78 78 79 79 79 79 78 78 78 78 77 78 77 78 77 77 77 77 77 77 76 75 76 75 73 73 72 71 71 71 70 70 69 69 69 68 68 68 68 68 68 67 67 67 66 67 67 66 66 66 65 66 66 66 66 66 66 65 65 65 65 65
76 76 78 79 79 79 78 77 77 76 76 76 76 76 76 76 77 77 77 77 77 76 76 76 75 74 72 72 72 72 70 70 70 69 69 69 68 69 69 69 68 68 67 68 67 66 67 66 66 66 65 66 66 66 65 65 65 66 65 66 65 65 65
76 77 76 75 74 75 75 75 74 75 76 76 76 76 76 76 76 76 76 77 77 77 77 76 74 74 73 72 72 71 70 70 70 69 69 70 69 69 70 70 70 68 68 67 66 66 65 66 65 65 65 66 66 66 65 65 65 65 65 66 65 65 65
75 75 74 73 73 72 73 74 75 75 75 76 76 76 76 76 76 76 76 76 78 77 76 76 75 75 73 73 72 71 70 70 69 70 70 70 69 70 70 70 69 68 69 68 67 66 65 65 65 67 65 65 65 65 65 65 65 65 66 66 66 65 65
74 74 73 73 72 74 74 73 74 75 75 76 76 76 76 76 76 76 76 76 77 77 76 75 74 72 71 72 72 71 71 70 70 71 71 70 69 70 69 70 71 71 70 69 68 67 65 64 63 65 65 64 64 64 64 64 64 64 65 65 65 64 64
74 71 71 72 72 72 73 73 74 74 75 75 76 76 76 76 76 76 75 75 76 77 76 76 74 73 72 72 72 71 71 71 71 71 70 70 69 69 69 69 69 69 69 68 66 66 66 65 65 64 65 64 64 64 64 64 64 63 64 64 64 64 64
70 72 72 71 71 71 72 73 73 74 74 75 76 75 75 75 75 75 75 76 76 77 76 75 74 73 73 72 72 71 72 72 72 71 70 70 69 69 69 69 69 69 67 67 66 68 67 67 66 64 63 63 63 64 64 65 65 65 64 63 63 64 64
72 72 71 70 71 71 72 73 74 74 74 74 74 74 75 74 74 75 75 75 76 76 76 75 74 73 72 72 72 72 72 71 71 70 69 69 69 69 69 69 68 68 66 66 67 67 67 66 65 65 65 64 63 63 64 65 65 67 67 67 65 64 64
71 72 70 71 71 72 72 73 73 73 73 74 74 74 75 75 75 75 75 76 76 75 76 75 73 73 73 72 73 72 71 72 70 69 68 69 69 69 69 68 68 67 66 65 66 67 67 67 65 65 64 65 65 64 65 66 67 67 64 65 66 66 64
70 69 70 71 71 71 71 72 72 72 73 74 74 75 75 74 74 74 74 75 75 76 76 75 74 73 73 73 73 69 70 70 69 69 69 69 69 69 70 69 67 66 65 65 65 66 67 66 66 65 64 65 64 65 65 65 68 64 64 65 64 66 66
70 70 71 71 71 71 72 73 73 73 74 74 74 74 75 75 74 74 75 74 75 76 75 74 74 73 73 73 71 69 70 70 69 69 69 69 69 70 68 67 67 66 66 66 67 66 65 65 65 64 64 65 65 65 65 65 66 64 63 63 63 64 65
70 72 71 71 71 72 72 73 72 73 73 74 75 76 77 76 76 76 76 76 75 75 74 74 74 72 70 70 69 68 69 69 70 69 69 70 69 68 67 67 67 68 67 67 66 66 65 64 64 64 64 65 65 65 65 64 66 64 63 62 62 63 64
68 68 69 69 69 70 70 70 69 69 69 71 74 74 74 73 74 73 73 74 73 74 74 73 69 67 69 68 67 68 69 70 69 69 69 69 69 68 67 67 68 67 67 67 66 65 65 65 64 65 65 66 66 65 65 66 64 62 62 61 60 61 63
69 68 69 70 71 71 69 70 71 72 72 73 73 73 74 74 74 74 74 73 73 73 72 69 68 68 69 69 68 69 70 70 69 70 70 69 68 67 67 68 67 67 66 66 65 65 65 65 65 65 66 67 66 65 65 66 63 61 61 60 59 62 63
73 72 73 72 72 73 72 73 73 73 72 71 72 73 74 74 74 73 71 70 72 71 70 68 67 66 67 68 69 69 70 69 69 69 69 69 68 68 68 68 67 66 66 66 65 65 65 66 66 66 66 67 66 64 64 65 64 60 58 58 59 60 62
73 72 70 70 69 69 69 69 71 72 72 71 71 72 71 71 71 69 68 67 68 68 67 67 65 66 67 69 70 71 71 70 70 70 70 68 68 68 69 69 67 66 67 67 66 65 66 66 66 66 66 66 64 65 65 65 64 60 58 56 58 61 63
72 73 71 71 72 72 71 69 70 70 70 69 68 68 70 70 70 69 67 66 67 66 65 64 66 67 68 70 72 71 70 70 70 70 69 69 69 69 68 67 67 67 66 67 67 66 65 66 65 64 63 64 65 68 66 64 63 61 58 57 57 60 62
69 71 71 68 69 69 69 70 71 69 69 69 68 69 70 70 69 67 66 67 67 66 65 65 66 68 69 69 69 70 70 70 70 69 69 69 69 68 68 67 66 66 66 65 66 65 65 64 64 63 62 63 64 65 64 63 64 64 57 54 54 57 62
69 69 70 69 68 71 68 69 70 69 69 67 67 69 69 69 67 67 67 66 65 65 65 66 68 68 68 67 67 68 69 69 69 69 69 69 68 68 67 66 65 65 64 64 64 64 63 63 63 62 62 62 62 62 62 64 63 63 56 52 52 54 57
69 70 70 70 70 70 69 69 67 67 66 66 67 68 68 67 67 66 65 64 64 65 67 67 68 67 67 67 68 69 69 69 69 69 69 68 67 65 65 64 65 65 64 64 63 63 63 63 62 61 61 61 61 61 61 64 66 63 59 53 51 50 54
67 68 68 68 69 70 70 67 66 65 64 66 67 67 67 67 66 65 65 64 65 66 66 67 66 66 66 66 66 67 68 68 69 69 68 67 66 66 64 63 64 63 63 63 62 62 62 62 61 60 60 59 59 60 60 61 64 63 62 54 50 49 51
65 65 66 67 68 68 68 66 65 65 66 66 66 66 67 67 65 65 64 64 64 65 65 65 65 66 66 66 66 68 69 69 69 68 67 66 65 64 64 63 63 63 63 62 62 61 61 60 59 59 59 59 58 58 59 60 60 62 62 60 53 49 48
64 65 65 65 66 67 68 67 65 65 65 65 65 66 66 67 66 65 64 63 65 65 66 65 66 65 65 66 67 69 69 68 67 66 65 65 65 64 63 63 63 62 62 61 60 60 60 60 59 58 59 58 58 58 57 58 58 59 61 61 60 53 49
64 64 64 65 64 65 66 65 65 65 64 64 65 65 65 65 66 65 63 65 66 66 66 66 66 66 66 67 67 68 67 66 65 65 65 65 64 64 63 63 63 62 61 60 60 59 59 58 57 57 57 57 57 57 58 57 57 58 59 62 62 58 51
62 62 62 63 65 66 65 65 64 64 65 64 65 65 65 65 65 65 64 64 64 64 65 66 66 67 67 67 66 66 65 65 63 62 62 63 62 62 63 62 61 61 60 59 59 58 58 58 58 58 57 57 57 57 57 58 58 58 59 59 58 56 53
61 62 62 62 64 65 64 65 65 65 65 64 65 66 66 65 64 64 64 65 65 66 66 66 66 66 66 66 65 64 63 63 67 64 61 61 62 61 60 60 59 59 60 60 59 58 58 58 58 57 58 57 56 56 56 57 57 58 58 58 57 54 52
61 60 61 62 63 64 64 64 65 64 64 64 64 65 65 64 65 65 64 66 66 66 66 66 66 65 64 64 64 64 65 64 65 63 62 60 58 54 53 54 56 57 58 54 53 55 59 59 57 58 57 57 57 56 57 57 57 59 56 58 54 53 51
60 61 61 61 63 63 64 64 64 63 63 63 64 64 64 64 65 66 67 66 65 63 64 65 66 65 65 65 65 65 65 64 64 61 61 59 57 55 54 49 44 45 53 56 51 46 42 45 56 56 56 57 57 56 58 58 57 53 51 47 45 45 46
62 61 61 62 62 62 62 62 64 63 63 63 64 64 64 64 65 65 65 64 64 65 66 66 65 65 66 65 65 65 65 63 62 61 59 58 55 54 54 51 48 41 41 46 47 43 39 39 39 40 43 51 54 50 46 47 46 43 42 41 41 41 40
61 62 62 62 63 62 62 63 63 63 63 63 64 64 64 64 63 62 64 64 65 65 64 64 64 64 64 65 65 66 65 63 63 60 58 55 54 53 53 51 49 48 42 40 43 42 39 38 38 40 42 44 47 50 48 45 41 41 41 40 41 41 40

ECMWFFLT1_sfc_temp_033.txt.gz
Temp
86 86 86 85 84 85 84 83 83 83 82 82 82 83 83 83 82 82 82 81 81 81 81 81 81 81 81 81 81 82 82 82 81 81 80 80 81 79 79 79 79 79 80 80 79 79 80 81 80 81 81 80 80 80 79 79 79 79 79 79 79 78 78
85 85 85 85 85 85 84 84 83 84 83 83 83 82 84 83 82 82 82 82 81 81 82 81 81 81 81 81 81 81 81 81 81 81 81 80 80 79 80 79 79 79 79 80 80 80 80 80 81 80 80 80 80 80 80 79 79 79 79 79 78 78 78
85 85 85 85 85 85 84 84 84 84 84 84 84 84 83 82 82 82 82 82 81 81 82 81 81 81 81 81 81 80 80 81 80 80 80 80 79 80 80 79 79 80 80 80 80 80 80 80 80 80 80 80 80 79 79 79 79 79 79 78 78 78 78
83 84 84 85 84 84 84 84 84 85 86 86 85 85 83 82 83 83 83 83 82 81 81 82 81 81 81 81 80 80 80 80 80 80 81 81 79 79 79 78 79 80 79 79 80 80 80 80 79 79 79 79 79 80 80 80 80 79 79 78 78 78 78
83 85 85 84 85 84 84 85 85 84 86 87 86 84 84 83 84 84 84 84 84 82 83 83 83 82 81 81 81 80 80 79 79 80 80 80 80 79 78 79 79 79 79 80 79 79 79 79 79 79 78 79 79 79 79 79 80 79 79 78 78 78 78
83 83 83 84 85 85 85 86 87 87 86 87 85 84 85 86 86 86 85 83 83 84 83 83 82 81 80 81 81 80 80 80 80 80 80 79 79 78 79 79 79 79 79 79 80 80 79 79 79 79 79 80 80 80 80 80 80 80 79 78 78 78 79
83 83 83 84 85 85 86 86 88 88 88 88 87 86 87 88 87 87 87 85 85 83 83 83 82 82 81 81 80 79 78 79 79 79 80 79 79 78 78 79 79 79 80 79 79 80 80 79 79 79 80 80 80 80 79 79 79 79 78 78 77 78 78
84 83 83 84 86 87 87 87 87 88 88 87 87 87 87 88 87 87 87 87 87 87 85 86 83 81 81 80 80 80 79 79 80 79 79 78 78 78 79 79 78 79 78 79 79 79 80 78 79 79 79 80 78 78 79 79 78 80 79 77 77 78 79
85 84 84 86 86 88 88 86 86 86 84 84 84 84 85 86 87 87 87 87 87 86 86 88 86 83 81 80 79 79 80 79 79 78 77 76 76 79 80 79 78 78 78 78 80 78 78 78 78 77 78 77 78 77 78 78 78 79 78 78 77 77 78
82 81 83 86 86 88 86 86 85 83 82 82 82 83 84 85 85 86 87 88 88 87 87 87 87 84 81 80 80 79 78 77 75 75 77 77 76 78 79 79 78 77 77 77 78 77 76 77 77 77 76 76 77 77 77 78 78 78 78 77 77 77 77
81 81 81 83 83 83 84 84 82 81 81 81 81 83 83 83 84 86 86 87 88 88 88 87 87 85 82 81 79 78 76 73 73 73 73 75 75 76 78 78 78 76 76 77 76 77 76 75 76 75 75 76 76 76 76 78 78 77 78 77 77 77 77
79 80 79 81 81 82 82 81 81 81 81 81 82 82 82 82 84 85 85 86 88 88 87 87 87 85 83 82 79 75 71 70 70 70 71 73 74 75 76 77 76 76 76 76 76 76 76 75 75 75 75 75 75 76 77 77 77 77 77 77 77 76 76
80 79 79 81 80 81 80 80 80 80 81 82 82 82 83 83 84 85 84 84 87 87 87 86 85 83 82 82 77 72 69 69 69 70 72 73 72 73 74 75 76 77 76 76 76 75 76 76 75 74 75 75 75 76 76 76 77 76 76 76 76 75 75
79 80 80 79 79 79 79 79 79 79 80 81 81 82 83 84 84 84 83 84 85 87 87 86 83 81 80 78 73 71 69 70 71 72 74 74 73 73 73 73 73 73 74 75 74 75 75 76 75 75 75 75 75 75 76 76 77 76 76 76 76 76 76
79 80 79 79 78 78 79 78 78 79 80 80 82 81 82 83 83 83 83 85 84 86 86 84 81 80 79 77 74 72 72 73 74 75 76 76 74 72 71 72 72 73 73 73 73 74 76 76 76 74 73 74 75 76 76 76 76 77 76 76 75 76 76
80 80 80 79 79 79 79 79 79 79 79 80 80 81 82 81 81 82 83 84 85 84 85 82 80 79 78 76 73 72 73 74 75 73 72 73 71 71 72 72 72 73 73 73 74 75 75 75 74 75 74 74 75 75 76 75 76 72 67 69 76 77 77
80 81 81 80 79 79 79 79 79 79 79 79 80 80 81 81 82 82 85 85 85 83 84 83 79 79 77 74 73 73 73 74 73 72 70 69 69 72 72 71 72 72 72 73 73 73 73 73 73 73 74 75 75 75 75 75 75 67 64 64 66 75 78
80 80 81 80 80 79 78 79 79 79 79 80 80 81 81 81 81 82 82 84 84 85 84 82 80 78 75 74 73 73 73 73 73 72 72 71 71 73 73 73 72 72 73 73 73 73 72 72 72 72 74 74 75 76 76 77 70 64 63 64 63 66 75
81 81 81 79 78 78 79 81 81 80 81 82 81 81 82 82 82 81 82 82 82 83 82 81 80 76 75 75 75 74 74 74 74 74 74 74 74 74 73 73 73 73 73 73 75 74 71 70 71 72 73 74 74 75 77 78 69 63 62 63 63 63 68
82 82 82 81 80 80 80 81 82 82 82 81 82 85 84 83 82 82 83 83 82 81 80 79 78 76 75 75 75 75 75 74 74 74 74 74 75 75 73 73 73 74 76 76 76 74 73 72 72 73 73 74 74 75 77 77 70 63 61 61 61 62 65
80 80 80 80 80 81 80 80 80 81 80 82 84 83 83 82 83 83 82 82 81 81 79 78 76 75 74 75 75 76 76 75 74 73 72 73 73 72 72 72 74 75 76 77 76 74 73 73 73 73 74 75 76 76 76 77 67 62 61 59 59 60 64
82 83 82 82 80 80 79 80 80 81 80 81 82 83 84 83 84 84 82 82 81 80 78 77 76 75 74 74 74 75 76 75 74 73 74 73 73 72 71 72 72 73 75 75 76 76 75 74 75 75 75 76 76 77 76 79 66 62 60 59 59 60 70
86 84 83 82 83 80 80 80 81 81 80 81 83 83 84 84 84 83 82 81 81 79 78 77 75 75 74 74 75 76 77 75 74 74 74 74 74 73 73 73 73 74 75 74 75 75 74 74 75 75 76 77 76 75 75 77 69 60 58 58 58 61 71
84 83 82 82 80 81 80 81 82 81 83 82 82 84 84 84 83 81 80 80 80 80 78 77 75 75 75 75 76 76 76 75 75 73 72 72 72 73 74 74 74 75 75 75 76 76 76 77 76 76 76 77 76 78 76 77 71 60 57 56 58 62 71
85 84 83 83 82 81 81 80 80 81 81 81 80 81 82 82 82 81 79 79 80 79 77 76 76 76 75 76 77 78 77 76 74 72 72 72 72 72 72 73 74 75 75 75 76 76 76 76 76 76 76 76 76 71 75 78 74 61 58 56 56 62 71
78 80 80 81 82 81 79 78 78 79 80 81 79 79 81 82 81 80 79 78 79 78 77 76 77 77 77 77 77 77 76 75 73 73 73 74 74 74 73 73 73 75 75 75 76 76 76 76 76 75 76 77 76 77 76 76 78 73 57 55 55 57 70
81 82 81 82 80 78 79 80 81 81 81 79 77 79 81 81 79 78 77 77 77 76 78 78 78 77 77 77 78 77 76 75 73 72 73 75 75 75 76 75 74 74 74 74 74 73 72 74 74 75 75 76 77 77 78 78 77 75 60 55 53 55 60
79 79 80 78 77 78 79 80 77 78 77 76 77 78 79 79 77 77 76 76 76 77 79 78 78 77 77 77 76 77 76 75 73 72 73 74 74 74 74 74 73 74 73 73 72 72 72 72 72 72 73 74 76 75 74 74 69 75 65 56 53 53 55
77 77 77 77 76 78 79 77 76 76 74 75 76 77 78 78 76 76 75 75 76 77 78 78 77 77 77 77 76 75 75 75 73 72 74 74 75 75 73 73 73 73 72 71 71 71 70 70 70 70 70 72 73 74 73 73 72 63 69 61 54 52 52
75 75 76 77 78 77 78 75 74 73 73 74 75 76 77 78 76 75 75 75 76 76 76 76 76 76 76 75 75 75 75 75 74 73 74 74 74 74 73 72 72 72 70 69 68 69 69 69 70 70 71 72 72 74 75 75 73 67 62 66 58 52 49
75 76 76 76 75 76 77 76 73 73 72 73 73 74 75 77 76 74 74 73 74 75 75 75 75 75 75 75 75 75 75 75 73 73 75 75 74 72 70 71 71 68 69 70 69 67 68 70 71 70 70 70 71 71 71 71 71 73 68 61 61 53 50
75 77 77 77 76 76 75 75 74 73 71 71 72 72 73 75 76 74 72 73 74 74 74 74 74 73 74 75 75 75 75 74 74 74 75 73 72 72 70 71 69 68 68 68 68 69 69 70 70 69 69 69 71 69 68 68 70 71 72 67 65 60 53
73 73 73 73 73 74 75 75 75 73 73 70 71 73 73 74 74 74 72 72 73 73 74 73 73 72 74 73 74 74 74 73 74 73 72 72 71 69 68 69 68 68 68 68 68 68 68 68 68 67 67 67 68 67 68 71 72 72 74 72 71 71 64
72 72 72 73 73 74 75 75 75 73 73 72 72 73 74 73 73 73 73 74 74 74 73 72 73 73 74 74 73 73 73 73 72 71 71 71 71 69 69 71 71 69 69 68 68 67 66 67 67 69 69 69 69 70 71 72 73 73 73 73 72 70 68
71 70 72 73 73 74 74 75 74 73 72 72 72 72 72 71 71 73 73 76 77 74 73 73 72 72 74 75 75 74 74 74 73 72 72 69 66 64 65 68 71 69 66 65 67 68 69 68 66 67 71 72 71 71 72 71 71 68 58 62 55 61 66
71 71 71 71 73 73 72 72 72 72 71 71 71 71 71 71 72 74 77 77 75 74 72 71 72 72 73 74 75 77 75 75 75 73 71 69 65 60 55 47 44 52 62 58 52 47 45 50 66 68 72 72 69 66 67 71 67 50 43 43 44 45 47
71 71 72 72 73 72 72 71 71 72 71 72 71 72 72 72 74 73 74 74 74 74 73 72 72 72 74 75 76 74 74 72 71 69 68 67 65 62 59 56 51 41 42 49 50 45 40 40 41 44 49 61 66 56 46 47 43 41 42 42 42 43 44
72 71 72 72 72 71 71 71 71 71 72 72 72 71 72 73 73 72 74 74 74 75 73 73 73 72 72 70 68 66 67 67 66 66 65 65 65 62 59 58 55 51 41 40 43 41 39 39 39 40 43 44 52 59 60 46 40 39 40 41 41 42 40

ECMWFFLT1_sfc_temp_036.txt.gz
Temp
96 96 95 95 94 94 93 92 92 92 91 90 90 91 91 91 90 90 89 88 87 87 87 87 87 87 87 87 88 88 88 88 88 87 88 87 88 87 86 87 86 86 87 86 85 86 85 86 86 86 85 85 84 84 84 84 83 84 83 83 83 82 82
96 96 96 96 95 94 93 93 92 93 92 91 91 90 92 90 89 90 89 88 87 87 87 87 87 87 87 87 88 88 87 88 88 88 88 88 88 88 87 87 86 85 86 86 87 86 86 86 86 85 85 84 84 84 84 84 83 83 83 83 82 82 82
96 96 96 95 94 94 93 93 92 93 93 93 93 92 91 89 89 89 88 88 87 87 88 88 87 87 88 88 88 87 88 88 87 87 87 88 87 89 88 87 87 87 87 87 86 86 86 85 85 85 85 84 85 84 84 83 83 83 83 83 82 82 81
94 95 95 95 94 94 94 93 93 94 95 95 94 94 91 89 90 90 90 89 88 87 87 88 88 88 88 87 87 87 87 87 88 88 88 89 88 88 87 87 86 88 87 87 87 87 87 85 85 84 84 84 84 84 84 84 84 83 83 82 82 82 82
95 96 95 94 95 93 93 94 94 93 95 97 95 92 92 91 91 91 91 91 91 88 89 89 90 89 88 88 88 88 88 87 87 88 88 88 88 87 86 87 87 87 87 87 86 85 85 84 84 84 84 83 84 83 83 83 84 83 82 82 81 83 83
95 94 93 94 95 95 94 96 97 97 97 97 95 93 94 95 95 95 93 90 90 91 89 89 89 88 87 88 88 88 88 88 87 87 87 87 87 86 86 87 87 87 87 86 87 86 85 84 84 84 84 85 84 84 84 83 83 84 82 82 81 82 83
95 93 93 94 95 96 96 96 98 99 98 98 97 96 96 97 96 96 95 93 93 90 90 90 90 89 88 88 88 87 87 87 87 86 88 87 87 86 86 86 86 86 86 85 85 85 84 84 83 84 84 84 84 84 83 82 83 83 82 81 81 82 82
96 94 94 95 97 98 98 97 97 99 98 97 97 97 97 97 97 97 96 97 95 95 94 94 90 89 88 88 88 88 87 87 87 87 87 86 86 86 86 86 85 85 85 85 84 85 85 83 83 83 83 83 82 82 83 82 82 84 82 81 81 82 83
97 95 95 97 97 99 99 97 96 96 94 93 94 94 94 96 97 97 97 97 96 96 95 97 95 91 88 88 87 87 87 87 86 85 85 84 85 87 87 87 85 85 84 84 85 83 83 83 82 81 82 82 82 81 81 81 82 83 83 82 81 81 82
95 94 94 96 97 99 98 97 95 93 92 91 91 91 92 94 95 96 97 98 98 97 96 96 96 93 89 88 87 87 86 85 85 85 85 85 85 87 89 89 87 85 84 83 84 81 81 82 82 82 81 81 81 81 81 81 82 82 83 82 81 81 81
94 92 92 93 94 95 95 95 92 89 89 88 89 91 91 92 93 95 95 97 98 98 99 97 96 94 90 88 89 86 84 84 85 84 85 86 87 89 90 90 89 86 85 83 83 81 80 80 81 80 80 80 80 80 80 81 81 81 83 82 82 82 82
90 90 89 90 91 92 92 91 90 89 88 88 89 90 89 90 92 94 94 95 98 98 97 97 97 96 91 91 88 84 84 84 83 83 85 87 87 89 89 86 82 83 83 82 82 81 81 80 79 79 79 79 80 80 80 80 81 81 81 82 82 82 82
90 89 88 90 89 90 90 89 88 87 88 88 89 89 90 91 91 93 92 93 97 97 97 95 94 92 90 89 88 85 84 84 83 84 85 83 83 85 86 83 84 84 83 83 83 82 82 82 80 79 79 79 79 80 80 80 81 81 80 81 82 82 82
88 90 89 89 89 88 87 87 87 87 87 88 88 89 90 91 92 91 91 92 94 97 97 96 93 91 90 88 86 85 84 84 83 83 83 83 82 83 85 84 82 81 82 82 83 84 84 84 82 83 82 81 81 80 80 80 80 81 80 81 82 82 82
91 91 89 89 87 87 87 87 86 87 87 88 89 88 89 90 90 90 90 92 92 96 95 94 91 90 89 88 86 84 83 83 83 83 83 83 83 83 83 83 83 82 82 82 84 85 86 84 84 82 81 81 80 79 79 80 80 81 81 81 81 82 82
92 92 92 90 88 88 87 87 87 87 87 87 88 87 89 88 88 89 90 91 93 92 94 92 89 88 87 85 84 83 83 83 82 82 82 82 81 81 83 83 82 83 82 83 84 83 83 83 82 83 82 80 78 78 79 80 81 77 72 74 81 82 82
93 94 93 91 89 88 88 87 87 87 86 86 87 87 87 87 88 89 92 92 93 91 92 92 88 88 87 85 84 83 82 82 82 81 81 81 82 82 82 82 82 81 81 82 82 82 81 81 81 82 83 81 79 77 78 79 80 71 66 67 68 78 81
94 92 93 92 90 89 87 87 87 86 86 88 88 87 87 87 88 88 90 91 92 93 93 90 87 85 84 85 83 82 81 81 81 80 81 81 81 81 82 82 82 81 81 81 81 81 81 80 80 81 82 81 80 79 78 78 74 66 65 66 65 67 78
95 94 93 91 89 88 89 90 89 87 88 89 89 88 89 89 89 87 89 89 90 91 91 90 89 85 85 85 83 82 81 82 81 80 80 81 81 81 81 81 80 80 81 81 82 82 79 77 79 80 80 80 78 78 79 80 71 64 64 64 64 63 69
95 95 95 94 92 91 89 89 90 89 90 89 90 93 92 90 89 89 90 92 91 89 89 87 87 86 85 84 83 82 82 82 81 80 80 81 81 81 80 80 80 81 83 82 81 80 79 78 78 79 79 79 78 78 80 81 71 63 63 62 62 63 66
92 92 92 92 90 91 88 88 88 88 88 90 93 92 92 90 91 90 90 90 89 89 87 87 86 85 84 83 83 82 82 80 80 79 80 81 82 81 80 80 81 81 82 83 82 80 79 79 79 79 79 80 80 80 80 82 66 61 61 60 60 61 64
94 94 92 93 89 88 87 89 88 89 88 91 92 93 93 91 92 92 90 90 89 88 87 86 85 84 84 82 83 82 81 81 80 79 80 81 81 81 80 80 80 79 80 80 80 81 82 80 80 79 80 80 80 81 80 83 64 61 61 60 59 60 72
99 95 94 92 93 90 88 90 90 90 89 90 91 91 91 92 92 91 90 89 89 87 87 86 84 83 83 82 82 83 81 81 80 80 80 81 81 81 81 80 79 79 80 78 79 81 80 80 81 80 80 79 79 79 79 84 69 60 60 59 58 63 76
99 97 96 94 92 91 89 90 90 89 90 89 90 91 92 93 91 89 87 87 88 88 86 85 83 83 82 83 84 83 81 81 80 80 79 80 80 81 82 82 81 81 80 79 79 80 79 78 79 81 80 80 80 82 82 84 73 58 58 57 57 66 76
98 98 96 94 92 89 89 88 88 88 89 89 89 90 91 91 90 89 87 87 88 87 85 84 84 83 82 83 84 84 82 82 81 81 81 80 81 83 82 81 80 81 80 80 80 80 80 79 80 81 80 81 80 77 81 84 76 56 58 56 57 65 75
92 91 90 90 91 90 88 87 87 88 88 88 87 89 89 90 90 88 86 86 87 85 84 84 84 84 84 84 85 84 82 82 81 80 81 81 82 82 82 81 81 79 79 78 79 80 82 81 81 80 81 80 81 83 83 82 83 74 54 55 55 60 75
92 92 91 93 92 86 87 88 88 88 89 87 87 89 90 90 87 85 85 85 84 84 84 85 85 84 84 84 85 84 83 82 82 81 82 83 82 83 82 82 80 79 78 77 79 80 79 80 80 79 79 79 79 78 79 81 82 73 53 54 54 57 63
92 93 93 88 85 86 89 91 88 88 87 86 87 88 88 87 84 84 83 84 83 84 87 85 85 85 85 84 84 83 82 82 81 81 80 81 81 79 77 77 78 78 78 78 78 78 78 78 78 78 77 77 77 79 80 78 72 79 59 54 52 54 56
87 87 86 86 87 89 90 87 86 87 85 86 87 87 86 85 83 82 83 83 84 86 85 85 85 84 84 83 82 81 81 81 81 79 79 79 80 78 75 75 75 76 75 76 77 77 77 77 76 76 76 76 78 79 79 78 74 66 71 55 52 50 53
87 88 89 91 90 88 87 84 83 83 83 85 85 86 86 85 83 82 83 82 84 85 84 84 84 83 82 81 81 81 81 81 80 80 79 78 77 76 75 75 75 74 74 75 76 75 75 76 76 75 75 75 75 76 77 75 75 68 66 64 53 50 50
87 87 87 85 84 84 84 83 80 80 80 81 82 83 84 85 83 82 81 82 83 83 83 82 82 82 82 81 80 80 80 79 79 79 79 77 76 74 74 75 76 74 75 75 76 75 76 76 76 74 75 75 74 74 74 75 75 76 65 62 59 53 49
85 86 86 85 84 83 82 82 81 79 78 79 81 81 83 84 84 81 80 81 81 82 82 81 81 80 80 79 78 78 78 77 77 78 78 77 77 75 74 75 75 74 74 74 75 75 74 71 72 73 73 71 74 75 76 75 76 75 71 67 64 60 53
80 81 81 81 82 82 82 81 80 78 77 75 77 79 80 81 82 80 80 80 81 81 81 81 80 78 79 78 78 77 77 77 77 76 76 75 76 75 74 74 75 75 74 75 75 73 72 73 72 70 71 71 74 74 72 72 71 72 75 74 74 74 65
80 80 82 83 83 81 80 79 77 75 74 74 77 79 80 81 81 81 82 83 83 82 80 78 78 79 79 79 79 78 78 77 76 75 74 74 75 73 73 73 73 74 74 75 75 74 74 73 73 74 74 73 73 72 71 71 74 76 79 80 80 79 74
79 80 81 80 81 82 81 81 80 78 78 78 79 80 81 82 84 84 83 84 84 81 80 79 79 80 81 80 79 78 77 77 76 75 75 73 72 69 66 68 75 76 74 70 71 72 76 75 75 75 77 76 72 71 72 75 77 77 61 63 53 63 75
80 80 80 81 81 80 79 80 80 79 79 79 80 80 80 81 83 85 88 86 83 81 79 78 80 81 82 81 81 81 78 77 77 76 75 73 70 67 62 52 42 49 65 65 55 48 45 54 73 75 78 77 72 68 73 78 75 51 47 46 47 46 44
80 80 81 82 81 79 79 79 79 79 78 79 80 80 80 81 83 83 84 82 82 82 79 80 79 81 85 82 84 80 79 77 76 75 74 74 72 69 63 59 55 44 41 46 47 43 41 40 42 46 49 62 73 61 48 48 45 43 42 41 42 43 44
82 82 83 83 82 80 79 79 79 79 78 79 80 80 80 82 81 80 83 81 81 81 80 80 80 81 83 84 78 76 78 79 77 76 74 73 70 68 64 63 60 55 43 39 41 42 40 39 40 41 45 44 52 64 65 48 41 41 41 41 40 41 40

ECMWFFLT1_sfc_temp_042.txt.gz
Temp
98 98 97 96 95 95 93 92 92 94 92 90 90 91 92 91 89 88 88 86 85 85 86 86 86 86 86 86 86 86 86 86 86 85 85 85 86 85 85 85 85 84 85 84 83 83 83 85 84 84 83 82 82 82 81 82 81 82 81 81 81 80 80
97 97 97 98 96 95 93 93 92 94 94 92 91 90 92 90 89 89 88 87 86 86 86 86 86 86 86 86 86 86 86 86 86 85 86 85 85 85 86 85 85 84 84 84 84 84 84 85 84 83 82 82 82 82 82 81 81 81 80 80 79 79 80
97 97 96 96 96 94 92 93 93 95 94 94 93 92 91 89 89 88 88 87 86 86 87 86 86 86 86 86 86 86 86 86 86 86 86 86 86 88 87 86 86 86 86 86 85 85 85 84 84 83 83 82 83 81 81 81 81 81 80 79 79 79 78
94 96 96 95 94 93 93 94 94 96 96 96 94 93 91 88 90 89 89 89 87 86 85 86 87 87 87 86 86 86 86 86 86 87 87 87 87 87 86 86 85 86 85 86 87 86 86 84 83 83 83 81 81 82 82 81 81 81 80 80 78 79 78
94 96 97 95 96 93 93 95 96 94 96 98 95 91 91 91 92 91 91 90 90 87 88 88 89 88 87 87 87 87 86 86 86 87 87 87 87 87 86 87 87 87 86 87 86 85 83 83 83 82 82 81 82 81 81 81 81 80 79 79 78 79 78
95 94 94 96 97 97 96 97 99 98 97 97 96 93 94 94 94 94 93 90 90 90 89 88 88 87 87 88 88 88 87 87 87 86 87 86 86 86 86 87 87 87 87 86 87 86 84 83 83 83 82 83 83 83 82 81 81 81 79 78 77 78 78
94 95 95 96 97 98 98 98 100 100 99 98 98 96 96 96 95 95 95 93 93 89 89 89 89 88 87 88 87 87 86 87 87 87 88 88 87 87 86 87 86 87 87 86 85 86 85 83 82 82 82 82 81 82 81 80 80 80 79 78 77 77 77
96 96 95 96 98 101 101 98 99 101 99 97 98 98 96 96 96 96 95 95 94 93 91 91 89 88 87 88 88 88 88 88 88 88 88 88 87 87 87 87 86 87 86 86 86 85 85 83 84 82 82 82 81 80 81 80 79 80 79 77 77 78 79
97 95 96 98 99 101 101 97 97 97 95 94 95 94 95 95 96 96 96 96 95 93 92 93 92 90 88 88 87 87 88 88 88 88 87 87 88 89 89 89 87 87 86 86 87 85 84 83 83 81 81 81 80 80 80 79 79 80 79 78 77 77 78
94 93 94 98 98 101 98 97 95 93 92 92 92 91 93 94 95 95 96 96 96 94 93 93 93 92 89 88 88 88 88 87 88 88 89 89 89 90 90 90 89 88 87 87 87 85 84 83 83 82 80 80 80 80 79 79 79 79 79 78 78 77 77
93 92 93 96 96 95 95 96 93 91 91 89 90 93 92 93 94 95 95 96 96 95 95 94 94 93 91 90 90 89 87 87 89 88 88 89 90 90 91 91 91 89 88 87 87 86 84 82 83 81 80 80 80 79 79 79 79 79 79 79 79 78 78
91 92 91 93 93 93 93 91 91 90 90 90 91 92 90 91 94 95 95 96 97 96 95 95 96 95 92 91 89 88 88 87 88 87 89 90 91 91 91 91 89 89 89 89 88 87 86 83 83 81 80 80 80 79 79 79 79 78 79 80 79 78 79
92 91 91 94 92 93 91 91 91 90 90 92 93 93 92 93 94 95 93 94 98 97 96 94 94 92 91 91 91 88 87 87 87 88 90 88 89 90 91 92 92 91 90 89 89 87 86 85 83 81 81 80 80 80 79 79 79 78 78 78 78 78 78
90 93 93 92 92 92 91 91 91 90 90 92 92 92 93 95 95 94 93 95 97 98 99 98 94 92 91 90 89 87 87 87 88 88 88 89 88 88 90 91 90 89 88 88 88 88 86 85 83 82 81 80 80 80 80 79 79 78 78 78 78 78 78
93 94 93 93 90 90 90 90 90 90 91 91 93 92 93 94 94 93 92 95 94 99 98 95 93 92 91 90 88 87 87 87 88 88 88 88 87 87 88 89 88 88 88 87 88 88 89 87 85 81 80 80 80 80 80 79 79 79 79 78 78 78 78
95 94 94 93 91 92 90 91 91 90 90 90 91 91 93 92 91 93 94 95 97 96 97 94 91 90 90 89 88 88 87 87 87 87 87 87 87 86 87 89 88 89 88 87 88 87 86 84 83 83 81 79 79 79 79 79 79 76 71 73 78 78 78
96 98 95 93 89 90 90 90 91 91 90 90 90 90 91 91 91 93 98 97 98 95 96 96 90 90 90 89 88 88 87 87 87 87 86 86 87 87 87 87 88 87 86 86 86 86 84 83 82 82 81 81 80 79 79 79 79 71 68 70 72 77 78
97 94 93 94 91 91 89 90 90 90 90 91 91 91 91 90 91 92 94 96 97 99 99 95 92 91 89 89 88 88 87 87 87 86 86 86 86 86 86 87 87 86 86 85 85 84 84 83 81 81 81 81 81 80 79 79 73 67 67 68 69 73 78
98 98 96 91 90 89 91 93 93 91 92 93 92 91 92 92 92 90 91 92 93 95 97 95 94 90 89 89 88 88 87 86 86 85 85 85 86 86 85 85 86 86 85 85 85 84 82 81 81 80 81 81 79 80 80 80 69 65 65 66 67 69 75
98 100 100 100 94 93 92 92 93 93 93 92 93 96 95 93 92 92 93 95 94 93 93 91 91 89 89 88 88 87 86 86 85 85 84 85 85 85 84 84 84 86 87 86 84 82 82 82 81 81 80 80 79 79 80 80 67 64 64 65 65 66 70
95 95 95 96 95 95 91 91 91 91 90 93 95 94 94 93 93 93 93 93 93 92 91 91 89 88 88 87 86 86 86 85 85 84 84 84 84 84 84 84 84 84 85 85 83 81 80 81 81 80 81 81 81 80 80 79 63 62 62 63 63 63 67
100 100 98 98 94 92 90 93 92 93 91 93 94 96 95 94 95 95 94 94 93 92 91 90 88 88 87 86 86 85 85 85 84 84 84 84 84 83 83 83 82 82 82 83 83 82 82 81 82 81 81 81 81 81 79 76 60 61 61 60 61 62 72
104 102 102 99 101 97 92 93 93 95 92 93 94 94 94 95 95 93 94 94 94 91 92 90 88 87 86 86 86 85 85 85 84 84 83 83 83 82 83 82 82 82 83 82 82 82 81 80 82 81 82 82 80 79 78 73 62 59 58 59 61 64 72
105 103 103 103 98 99 94 93 95 93 93 93 93 94 94 95 94 92 90 91 92 93 91 90 87 87 86 86 87 86 86 85 85 83 83 83 83 82 82 83 83 83 83 82 81 81 82 82 80 81 81 81 80 81 79 74 62 58 57 60 59 65 72
105 105 103 102 102 101 98 93 93 93 92 92 92 93 93 93 93 92 90 90 92 92 89 87 86 86 87 87 87 86 86 85 84 84 84 83 83 83 82 82 82 83 83 83 83 83 81 81 80 79 79 80 80 77 78 74 65 58 58 57 57 65 73
98 101 102 101 103 98 93 91 90 91 92 91 90 93 93 94 92 90 89 89 90 89 87 87 86 87 87 87 86 86 85 84 83 83 83 82 82 82 82 82 84 84 83 83 83 83 82 80 79 77 78 79 79 76 76 72 67 62 57 57 55 61 74
98 99 100 104 101 88 92 91 91 91 92 91 90 93 94 93 90 88 87 87 87 86 87 87 87 87 87 86 86 86 85 84 84 83 84 84 83 83 83 83 83 83 82 82 82 80 78 78 77 77 76 76 76 74 74 75 73 67 56 55 56 59 65
99 97 101 101 90 89 92 94 90 91 94 91 91 92 92 90 87 86 86 87 86 87 88 87 87 86 86 85 85 86 85 84 83 83 83 83 82 81 81 82 82 82 81 81 79 78 77 77 76 77 74 74 77 76 75 74 69 67 56 55 55 56 59
94 94 91 90 90 92 93 91 90 92 92 92 93 92 91 89 86 86 85 86 86 88 87 87 86 85 85 84 84 83 83 82 82 82 83 82 82 81 80 81 81 81 80 79 78 77 77 77 76 76 76 76 75 76 75 73 69 62 62 56 55 54 57
94 95 93 96 94 93 94 90 90 90 90 91 90 90 89 87 85 85 85 85 87 87 86 85 85 84 84 83 83 83 83 83 82 82 82 81 80 80 80 79 80 79 79 78 77 76 76 74 74 74 74 74 74 74 71 71 69 63 63 61 56 53 53
89 94 94 92 92 91 90 90 88 88 88 89 88 88 88 87 85 84 83 85 85 84 85 84 84 83 83 83 82 82 83 83 82 82 82 81 80 78 77 78 79 77 78 77 76 76 75 74 74 72 71 71 71 69 70 70 68 67 63 60 56 54 53
73 76 86 92 91 89 89 89 88 87 86 86 86 86 86 86 86 83 83 85 84 85 84 84 82 82 82 82 82 83 83 82 82 82 81 79 78 78 77 78 77 76 76 76 76 75 75 73 73 72 71 69 69 68 69 69 68 66 65 62 60 58 54
74 73 69 65 66 77 87 88 86 84 83 82 84 85 85 85 85 84 84 84 85 85 84 82 81 81 81 81 82 81 81 80 79 78 77 77 77 77 77 77 77 77 75 75 75 74 72 73 72 71 70 68 68 67 67 67 68 67 66 66 64 65 60
71 70 69 70 71 70 71 72 76 77 79 77 79 81 83 85 85 85 86 86 87 85 83 81 81 81 81 81 81 80 79 77 78 77 77 75 75 74 75 77 78 76 76 76 75 73 72 72 71 71 71 68 67 67 67 66 67 67 67 68 69 67 65
70 69 69 69 70 70 72 73 73 73 73 76 78 82 84 85 87 88 87 87 87 84 82 81 80 81 81 80 80 78 77 77 78 75 71 67 61 57 56 56 63 71 67 63 64 71 75 73 72 72 74 71 69 67 66 67 67 69 64 70 62 66 66
70 69 69 69 69 70 72 74 74 76 77 78 80 82 83 84 85 86 88 86 85 84 81 79 80 81 81 81 81 81 79 79 77 73 71 68 64 60 57 51 43 50 63 63 56 49 51 61 70 73 73 71 70 68 68 69 70 55 53 54 54 55 54
66 67 68 69 69 70 71 75 78 79 79 80 81 82 83 84 86 85 86 85 85 84 82 81 80 80 82 82 82 80 80 76 73 73 71 71 69 67 64 61 56 44 42 47 48 45 44 45 48 57 62 69 67 53 46 48 45 44 44 45 45 44 43
69 71 75 76 76 76 77 78 78 79 79 81 82 83 83 84 84 83 85 85 84 84 82 83 81 81 83 84 80 77 78 76 74 73 72 71 70 68 66 65 63 58 46 41 43 44 42 42 45 50 52 54 57 57 54 46 43 42 43 43 43 43 41

ECMWFFLT1_sfc_temp_045.txt.gz
Temp
92 91 90 91 90 89 88 88 88 87 85 85 85 86 86 85 84 83 83 82 81 81 81 82 82 82 81 81 82 82 82 82 82 81 81 81 81 80 80 80 80 79 79 79 79 79 79 80 79 78 78 77 77 76 76 76 75 76 73 74 75 74 74
90 91 89 90 89 88 87 88 88 88 87 86 86 86 87 85 84 83 83 82 82 82 82 82 82 82 82 82 82 82 81 82 82 81 81 81 81 80 81 81 80 79 79 79 79 78 79 79 79 78 78 77 76 76 76 75 75 75 74 73 73 73 73
89 90 89 88 88 88 86 87 88 89 88 87 87 86 86 85 85 84 83 82 82 82 82 82 82 82 82 82 81 81 82 82 81 81 81 81 81 81 81 81 81 80 80 80 79 79 80 79 78 78 78 77 76 76 76 75 75 75 75 73 74 73 72
88 89 89 88 88 88 87 87 87 90 89 88 87 87 87 85 86 85 84 84 82 82 81 82 82 82 82 81 81 81 81 82 82 82 82 82 82 81 81 81 81 81 80 80 80 81 80 79 78 78 79 77 76 76 76 76 75 75 75 74 73 73 72
88 90 89 89 89 87 86 86 87 89 89 90 88 87 87 86 86 85 85 85 84 83 83 83 84 83 83 83 82 82 82 82 82 82 82 83 82 82 81 81 81 81 80 81 81 80 80 78 78 78 77 77 77 76 76 76 75 75 74 74 73 73 72
88 88 88 89 90 89 88 89 89 90 90 90 88 87 87 88 88 87 86 84 84 85 84 83 83 83 82 83 83 82 82 82 82 82 82 82 82 82 81 81 81 82 81 81 81 81 80 79 78 78 77 77 77 77 76 76 76 75 74 73 73 73 72
88 89 89 90 90 90 89 89 90 91 91 91 89 88 89 89 88 88 87 85 85 84 83 83 83 83 82 83 82 82 81 82 82 82 83 82 82 82 82 82 82 82 82 82 80 81 80 79 79 78 78 78 77 77 76 75 75 75 74 72 72 73 73
90 90 90 90 91 91 90 89 90 91 91 90 89 89 89 89 89 89 88 87 86 86 85 84 83 83 83 83 83 82 82 82 83 83 82 82 82 82 82 82 82 82 82 82 81 81 80 80 79 79 78 78 77 76 76 76 75 76 75 73 72 72 74
91 91 90 91 91 93 92 89 90 90 89 89 88 88 88 88 89 89 89 88 87 86 85 86 85 84 84 83 83 82 83 83 82 82 82 82 82 82 83 83 82 82 82 82 82 80 80 80 80 78 78 77 76 76 76 75 75 75 75 74 73 73 73
90 89 89 91 93 93 91 90 89 88 87 87 87 86 87 88 89 89 89 89 89 87 87 87 86 85 84 83 83 83 83 82 83 83 83 83 83 83 83 84 83 82 82 82 82 80 80 80 79 78 77 77 76 76 76 75 75 75 75 75 74 73 72
88 88 88 89 89 89 88 89 87 86 86 86 86 87 87 87 88 89 89 90 89 89 89 88 87 86 85 84 84 83 83 82 83 83 83 83 84 84 85 85 84 83 83 82 82 81 80 79 79 78 77 77 76 76 76 76 76 75 75 75 74 74 73
87 87 84 86 87 86 86 87 87 85 85 86 87 87 86 86 88 89 89 90 91 90 89 88 89 88 86 85 84 83 83 82 83 82 83 84 84 85 85 85 84 84 83 83 82 81 81 79 79 78 77 77 77 76 76 76 75 75 75 75 74 74 74
87 85 84 86 87 87 84 82 84 85 85 86 87 87 86 87 88 89 88 89 91 91 90 89 88 87 86 85 85 83 83 83 83 83 84 84 84 85 85 85 86 85 84 84 84 82 81 80 79 79 78 77 77 77 76 75 75 75 74 75 75 74 74
87 87 87 87 87 84 81 82 83 83 83 85 86 87 87 88 89 88 88 89 90 91 91 90 88 87 86 85 84 83 83 83 84 84 84 84 84 84 85 85 85 84 84 84 84 83 82 80 79 79 78 78 77 77 77 76 75 75 75 75 75 75 74
85 86 85 85 83 83 83 82 82 82 82 83 85 86 86 87 88 88 88 90 90 91 91 90 88 87 86 85 84 83 84 83 84 84 84 84 84 83 84 84 84 84 84 83 84 83 83 82 81 79 77 77 77 77 77 76 75 75 75 74 74 75 74
85 86 86 86 85 85 84 84 83 82 82 82 84 85 86 86 86 87 88 89 90 90 91 89 87 86 86 85 84 84 84 83 83 83 83 83 83 83 84 84 84 84 83 83 84 83 82 81 80 80 78 77 76 76 76 75 76 72 68 71 75 74 74
86 86 84 82 80 83 83 84 84 83 83 83 84 85 86 86 87 88 90 90 91 90 91 90 87 86 86 85 85 84 84 83 83 83 82 83 83 83 83 83 84 83 82 82 83 83 81 81 80 79 78 78 77 76 76 75 75 67 66 68 70 74 74
85 84 84 85 84 84 84 84 83 83 83 85 85 86 86 86 87 87 88 90 90 91 91 90 88 86 86 85 85 84 83 83 83 82 82 83 83 83 83 83 83 82 82 82 82 82 81 80 79 79 78 78 77 76 76 75 70 64 66 67 67 70 74
85 87 86 85 84 84 86 86 86 85 86 87 87 86 88 88 87 86 88 88 90 91 91 90 89 87 85 85 84 84 84 83 83 82 82 82 83 83 82 82 82 82 81 81 82 81 80 79 79 78 78 77 76 76 76 76 67 63 65 66 66 67 72
82 85 88 88 88 88 87 87 87 87 87 87 88 89 90 89 88 88 89 91 90 89 89 89 88 86 86 85 84 84 84 83 83 82 82 82 82 82 82 82 82 82 82 81 80 80 80 79 77 77 76 76 76 76 76 76 65 62 63 65 65 65 69
81 81 84 86 86 88 86 86 86 86 85 87 89 89 89 88 89 89 89 89 89 89 88 89 87 85 85 85 85 84 84 83 83 82 82 82 82 81 81 81 81 81 80 80 80 80 79 77 77 76 76 77 77 76 75 76 61 61 61 63 62 62 66
81 82 82 84 84 84 85 86 86 86 86 87 88 89 89 89 90 89 88 89 89 88 88 88 86 85 84 84 84 84 84 83 82 82 81 81 81 80 80 80 80 80 78 79 79 79 78 77 78 76 76 76 76 76 75 71 59 61 61 61 61 63 67
86 84 84 82 87 88 86 86 86 88 87 87 88 88 89 90 90 89 88 88 89 88 88 87 85 84 84 84 84 84 84 83 82 81 80 80 80 80 79 79 79 79 78 77 77 77 77 76 77 76 77 76 76 76 75 67 60 59 59 59 60 63 68
90 90 87 84 81 84 86 86 88 88 88 88 87 89 90 90 89 87 86 87 88 88 87 86 84 84 84 84 84 84 83 83 82 80 80 80 79 79 79 79 79 79 78 78 77 77 77 76 76 76 77 77 76 77 73 66 61 58 58 58 60 64 69
91 91 89 88 88 84 83 86 87 88 87 87 87 88 88 88 88 87 86 86 88 88 86 85 83 83 83 83 84 83 83 82 81 80 80 80 80 80 79 79 78 79 78 78 78 78 78 77 76 75 76 77 78 73 70 67 62 57 57 58 58 63 69
83 84 84 85 87 90 85 83 85 85 86 86 86 88 88 88 88 86 85 85 86 86 85 84 83 83 84 83 82 82 82 81 80 80 80 79 79 79 79 78 78 78 79 78 78 77 77 75 75 75 75 76 77 74 71 68 65 60 56 57 58 60 69
86 84 83 85 87 84 86 83 83 85 86 87 86 88 88 88 86 84 84 84 84 84 85 84 83 83 83 82 82 81 81 81 81 80 80 80 79 79 78 78 78 78 77 77 77 75 75 75 74 75 74 73 73 72 71 70 67 63 56 57 57 58 65
78 82 85 83 81 82 86 91 83 84 87 87 87 88 88 86 84 83 83 82 83 84 84 83 83 83 82 81 81 81 81 81 80 80 80 79 79 77 77 77 77 77 77 76 74 73 73 73 73 72 70 70 72 72 71 69 66 68 58 57 55 56 60
74 75 80 81 80 81 82 80 80 83 86 86 86 85 85 85 82 81 81 82 82 83 83 83 83 82 81 80 80 80 80 79 79 79 79 78 78 77 76 76 76 76 76 74 73 72 72 72 71 70 69 69 70 71 71 70 68 64 62 56 54 55 55
73 74 77 80 79 77 77 74 74 74 76 78 81 83 85 84 81 80 81 81 81 82 82 82 82 81 80 79 79 79 78 78 78 79 78 77 76 76 75 75 74 74 74 73 73 72 71 70 70 69 69 69 69 69 69 68 67 62 61 59 54 54 54
71 71 74 73 72 73 75 74 73 73 73 73 72 74 78 82 82 79 80 80 82 81 82 81 81 80 79 78 78 77 78 77 77 77 77 76 76 74 74 73 74 73 73 73 72 71 70 69 69 69 67 67 68 67 67 66 65 64 62 59 56 55 54
69 70 71 71 71 71 72 73 73 73 72 70 70 71 72 74 79 79 79 81 81 82 81 80 79 78 77 77 77 77 77 76 76 75 75 74 74 73 72 72 72 71 71 72 72 71 70 68 69 68 68 67 66 66 66 65 65 64 63 61 58 58 56
68 69 69 68 69 69 69 69 69 69 70 70 71 73 74 74 74 78 80 80 81 81 81 79 78 77 76 76 76 76 76 75 74 73 73 73 73 73 73 73 73 72 71 71 71 70 69 69 68 67 67 66 66 66 66 66 66 64 63 62 60 61 58
65 66 68 68 68 69 69 68 68 68 69 69 70 72 73 73 73 73 76 79 80 80 79 76 77 77 76 76 76 76 75 74 75 71 67 66 66 67 68 71 73 72 71 70 71 69 68 69 67 67 67 66 66 65 65 65 64 64 63 63 63 62 59
65 65 65 66 67 67 67 67 68 69 69 69 70 72 73 73 73 74 75 75 76 77 77 77 76 77 77 76 75 73 72 70 67 65 62 58 54 51 51 54 62 65 60 56 56 65 71 68 68 67 68 68 66 65 65 65 64 66 61 66 59 63 61
64 65 66 67 68 68 68 68 68 69 68 68 69 69 69 71 71 72 74 75 76 76 75 76 77 77 76 75 75 73 71 68 67 64 62 59 58 56 53 49 42 48 58 57 56 50 57 62 68 70 69 67 67 67 66 65 68 59 53 52 52 52 54
64 64 65 66 67 67 67 68 69 67 66 66 66 68 68 70 70 71 73 73 76 76 76 77 75 75 75 75 74 71 70 68 66 65 63 62 61 59 58 56 53 44 43 48 49 48 51 53 55 58 61 66 63 54 53 60 56 51 50 49 49 49 48
66 66 66 66 67 67 66 66 68 68 66 67 67 67 68 72 75 75 75 75 76 78 77 77 76 75 75 72 70 69 69 69 67 66 64 63 62 61 60 59 57 56 47 43 44 45 44 47 50 53 54 56 58 58 55 50 48 49 48 48 47 45 43

ECMWFFLT1_sfc_temp_048.txt.gz
Temp
87 86 87 87 86 86 85 85 85 84 84 83 83 83 83 83 82 81 81 80 80 79 80 80 80 79 79 79 80 80 80 80 80 79 79 79 79 79 78 77 77 77 77 77 77 77 78 78 78 77 77 76 75 74 73 73 72 73 72 72 71 71 71
86 86 86 87 86 86 85 85 85 86 84 84 84 83 84 83 82 81 81 81 80 80 80 80 80 80 80 80 80 80 79 80 80 80 79 79 79 79 79 78 78 77 78 78 78 78 78 78 78 77 76 76 76 75 74 73 72 72 72 71 71 70 71
85 86 86 86 86 86 85 85 85 86 85 85 85 84 83 82 82 82 81 81 80 80 80 80 80 80 80 80 80 79 80 80 79 79 78 79 79 79 80 79 78 78 78 79 78 78 78 77 77 77 77 76 76 75 74 73 73 72 72 71 71 71 70
85 86 86 86 87 87 86 86 85 87 86 86 85 85 84 83 83 83 82 82 80 80 79 80 80 80 80 80 79 79 79 80 80 80 80 80 79 79 79 79 78 79 78 78 79 79 78 78 77 76 78 76 75 75 74 74 73 73 72 71 70 71 71
86 87 87 86 86 86 86 86 86 86 86 87 86 85 85 84 84 83 83 83 82 81 81 81 81 81 81 81 80 80 80 80 80 80 80 80 80 79 79 79 79 79 79 79 78 78 77 77 76 76 76 76 75 75 74 74 73 73 72 71 70 70 70
85 85 86 86 87 86 86 87 87 87 87 86 85 85 85 85 85 84 83 82 82 82 82 81 81 81 80 81 81 80 80 80 80 80 80 80 79 79 79 79 80 79 79 79 79 78 78 77 77 76 76 76 76 75 75 74 73 73 72 71 71 70 70
86 86 86 87 87 87 86 87 88 88 89 88 87 86 86 86 85 85 84 83 83 81 81 81 81 81 81 81 80 80 79 80 80 80 80 80 80 80 79 80 80 80 80 79 78 78 78 77 77 77 77 76 76 75 74 73 73 72 72 71 71 70 70
87 87 87 87 88 88 88 87 88 89 89 87 86 85 85 86 85 85 84 84 83 83 82 82 81 81 81 81 81 80 80 80 80 80 80 80 80 79 80 80 80 80 80 79 79 79 78 77 77 77 77 77 75 75 75 74 73 72 72 71 71 70 71
88 88 88 89 89 89 89 87 87 87 86 85 85 84 85 85 85 85 85 84 84 83 83 83 83 82 81 81 80 80 80 80 80 80 80 80 80 80 80 80 80 80 80 79 79 79 79 78 77 76 76 76 75 75 74 73 73 73 72 72 72 71 71
86 86 88 90 90 90 89 88 86 85 84 83 83 83 84 85 85 85 85 85 85 84 84 84 84 83 82 81 80 81 80 80 80 80 80 80 80 80 81 81 80 80 80 80 80 78 78 78 77 77 76 76 75 74 74 73 73 73 73 72 72 72 71
86 86 87 88 88 87 87 86 83 82 83 83 82 83 84 84 85 85 85 85 85 84 85 84 84 83 82 81 81 80 80 80 80 80 80 80 81 81 81 82 81 81 80 80 79 79 78 78 78 76 76 75 75 74 74 73 73 73 73 73 73 73 72
84 85 84 85 85 84 82 82 82 82 82 82 82 83 83 83 85 85 85 85 86 85 85 85 85 84 82 82 81 80 80 80 80 80 80 80 81 81 82 82 81 81 81 81 80 79 79 78 77 77 76 76 75 75 74 74 74 73 73 74 73 73 73
84 82 82 84 83 83 81 80 81 82 82 83 83 83 84 84 85 85 85 85 86 86 85 85 84 83 82 82 81 80 80 80 80 80 81 80 81 81 82 82 82 82 81 81 81 80 79 78 77 77 77 76 76 75 74 74 74 74 73 73 73 73 72
84 83 82 83 82 80 79 80 81 81 81 83 83 84 84 85 85 85 85 85 86 86 86 86 84 83 82 82 81 80 80 80 81 81 81 81 81 81 81 82 81 81 81 81 81 81 80 79 78 77 77 76 76 75 75 74 74 74 73 73 73 73 72
82 83 82 81 80 79 79 80 80 81 81 83 83 83 83 84 84 84 85 86 86 87 86 86 84 83 82 81 80 80 80 80 81 81 81 81 80 80 81 81 81 81 81 80 81 81 81 80 79 77 76 76 75 75 75 74 74 74 74 73 73 73 72
83 85 84 82 81 81 81 81 81 81 81 82 82 82 83 83 83 84 84 85 86 86 87 85 83 82 82 81 81 81 81 81 81 81 80 80 80 80 81 81 81 81 80 80 81 81 80 80 79 78 77 76 75 75 74 74 75 72 67 69 74 72 72
80 82 82 82 81 81 81 82 82 82 81 81 81 82 83 83 83 84 86 86 87 86 87 86 83 83 82 82 82 81 81 81 80 80 80 80 80 80 80 80 81 80 80 80 80 80 80 79 78 78 77 76 75 74 74 74 75 67 65 66 68 71 71
81 82 82 81 80 80 80 81 81 80 81 81 82 82 83 82 83 84 84 86 86 87 87 86 84 83 82 82 82 81 81 81 80 80 80 80 80 80 80 81 80 80 80 80 79 79 80 79 78 78 77 77 76 75 75 75 70 66 64 65 64 67 70
79 80 81 80 78 78 80 81 81 81 82 83 83 83 84 85 84 83 84 85 86 87 87 86 85 83 82 82 82 82 81 81 80 80 80 80 80 80 80 80 80 80 80 80 80 80 79 78 78 77 77 77 75 75 75 75 69 65 63 63 64 68 70
81 83 83 83 83 83 82 82 82 83 84 84 84 86 87 86 85 85 86 87 87 86 86 85 85 84 83 82 82 82 82 81 81 80 80 80 80 80 80 80 79 80 81 81 80 79 79 79 78 77 76 77 76 75 76 75 68 63 61 60 64 66 68
76 77 80 82 82 84 84 84 84 83 83 84 85 85 86 85 86 86 86 85 85 85 85 85 84 83 83 82 82 82 82 81 81 80 80 80 80 80 80 80 80 80 80 81 80 79 79 79 78 77 77 77 77 75 75 76 65 60 59 59 62 64 65
79 81 81 82 84 85 84 86 86 86 84 85 85 85 86 86 87 87 86 86 85 85 85 84 84 83 83 82 82 82 82 82 81 81 80 80 80 80 79 79 79 79 80 80 80 80 80 79 79 78 77 77 76 76 74 75 61 59 58 58 60 62 67
78 78 79 78 80 81 80 84 85 87 86 85 85 86 86 87 88 86 86 85 85 84 84 84 83 83 82 82 83 83 83 82 81 81 80 80 80 79 79 79 79 80 80 79 79 79 79 79 78 78 77 76 76 75 75 71 59 58 56 58 59 61 68
79 79 76 75 74 78 80 81 83 83 83 83 83 85 86 87 87 85 84 84 84 84 84 84 83 83 83 83 83 83 83 83 82 81 80 80 80 80 80 80 80 80 80 79 79 79 79 79 78 77 77 76 75 76 74 69 59 55 55 57 58 63 69
74 75 77 78 76 77 77 77 80 83 82 82 82 83 84 85 86 85 83 83 84 84 83 83 83 83 83 83 84 84 84 83 82 82 81 80 80 81 80 80 80 80 79 80 80 79 79 77 77 75 75 76 76 71 73 70 61 54 56 57 58 63 70
71 72 75 76 76 74 74 76 76 76 79 81 82 83 82 84 84 84 83 83 84 83 83 83 84 85 85 85 84 84 84 83 82 82 82 81 81 81 81 81 80 80 79 79 80 78 76 75 75 74 74 75 76 74 74 70 66 59 56 57 57 60 71
71 72 73 75 73 74 73 72 76 79 81 82 82 83 84 84 83 82 82 82 82 82 84 85 85 85 84 84 84 83 83 83 83 82 82 82 81 81 80 80 80 79 78 78 76 75 73 74 74 74 73 73 73 73 72 72 68 62 56 56 56 59 65
69 71 72 72 72 72 72 73 73 74 78 78 79 78 79 79 81 82 82 81 81 83 86 86 85 84 83 82 83 83 83 83 82 82 82 81 81 79 79 79 80 79 78 76 74 74 73 72 72 72 71 70 71 72 71 70 66 67 56 55 55 57 61
67 68 68 69 70 71 72 70 70 70 71 73 76 78 79 80 78 78 79 80 82 85 85 84 84 83 82 82 82 81 82 82 81 81 81 80 80 79 78 77 78 77 76 74 73 73 72 71 71 69 68 69 70 71 70 69 66 60 60 55 55 55 58
68 68 69 70 70 69 70 70 70 70 70 71 71 74 77 80 79 78 78 78 76 77 79 79 80 80 80 80 80 80 80 80 80 81 80 79 79 78 76 76 76 75 75 74 74 72 70 69 69 69 69 69 68 68 68 67 66 60 59 59 55 54 55
67 67 67 67 67 68 68 68 69 70 70 70 71 71 73 77 79 77 78 76 77 78 78 78 78 79 79 79 79 79 79 79 79 79 79 79 78 76 75 75 75 74 73 73 72 71 69 68 68 69 68 68 68 67 67 66 66 64 61 59 56 54 53
67 67 67 67 66 67 67 68 68 69 68 69 70 71 71 72 75 75 74 76 77 78 79 78 78 77 77 78 78 78 79 78 78 78 77 77 77 77 76 75 74 72 71 71 70 70 69 68 69 68 68 67 67 66 66 65 64 63 61 60 58 56 55
65 65 65 64 65 66 67 67 67 67 67 68 69 70 71 70 70 71 73 75 77 79 79 78 77 76 76 76 76 77 77 76 76 75 74 74 74 74 74 73 72 72 71 71 70 70 69 69 68 67 67 66 66 65 65 64 63 62 61 60 59 60 59
64 64 64 65 66 66 67 67 66 66 66 66 67 69 69 69 69 70 70 70 71 72 74 74 74 75 74 75 75 75 75 74 75 74 71 70 72 72 71 71 72 72 71 71 70 68 68 68 68 67 67 66 65 64 63 62 62 61 61 60 60 61 60
65 65 65 65 66 66 66 66 66 66 65 65 66 67 68 68 69 69 69 70 70 70 69 68 68 70 71 70 69 68 68 68 66 62 59 56 52 51 54 62 70 68 61 60 63 70 70 68 67 67 68 67 65 64 63 63 62 63 59 63 58 61 61
64 65 65 66 67 66 66 66 66 65 65 65 66 66 67 68 69 69 69 69 70 70 69 68 68 68 68 68 67 66 65 63 62 61 59 57 56 57 55 49 42 50 63 61 55 56 61 61 67 69 68 66 66 67 65 65 67 57 54 52 51 51 54
63 64 66 66 66 66 66 65 66 65 65 65 65 65 67 68 68 69 69 70 69 70 69 68 67 66 67 67 66 65 65 64 63 63 62 62 61 60 58 57 55 44 44 49 51 54 52 52 54 57 60 67 65 58 55 60 54 51 50 48 48 48 48
64 64 66 67 66 66 66 66 66 65 65 66 66 66 66 68 69 68 69 70 70 70 69 69 67 66 66 65 65 65 65 64 64 64 63 63 63 63 62 61 59 57 47 43 46 47 48 50 52 53 53 57 60 59 57 52 49 48 47 47 47 46 45